GFSNGP_prec_cthk_000.txt.gz
RH
34 32 27 23 23 29 28 28 32 27 28 26 33 37 41 46 50 54 59 61 63 64 64 71 75 66 61 60 60 54 50 46 42 38 33 27 26 27 28 31 32 42 40 42
36 36 33 27 24 25 27 27 31 30 30 30 32 37 41 44 49 54 59 62 63 66 72 69 61 59 61 59 54 53 49 44 41 35 30 27 28 29 32 37 42 46 45 50
30 38 32 27 23 25 25 25 27 32 26 31 34 36 39 44 47 53 59 62 63 61 62 62 61 61 58 55 55 52 47 43 38 34 30 29 30 33 36 42 49 53 57 69
42 36 33 21 24 25 25 26 27 29 30 32 33 37 41 44 47 53 59 61 61 63 66 66 60 57 56 55 54 51 44 40 36 33 32 30 33 36 41 46 53 58 63 68
41 43 30 23 29 31 31 27 29 31 34 36 38 41 39 42 47 56 61 61 64 68 67 60 56 58 58 57 52 44 40 36 35 34 32 32 34 40 44 51 60 64 69 74
47 37 34 26 27 29 29 36 29 31 37 38 40 47 39 46 51 60 63 63 67 67 63 61 59 59 58 53 45 40 38 37 33 34 36 36 39 46 50 55 62 65 63 55
53 44 35 25 29 30 40 32 31 32 34 39 43 42 46 50 58 64 66 70 70 69 67 65 62 59 56 46 42 40 36 31 31 36 37 42 44 51 54 57 58 56 55 53
53 52 37 28 34 37 34 32 33 37 41 44 47 52 53 58 62 68 74 72 74 77 74 66 60 56 47 43 41 37 31 29 30 33 38 46 50 54 51 52 52 52 53 54
46 44 37 37 38 39 40 41 41 43 48 54 58 59 62 63 63 76 73 76 83 81 70 62 59 50 45 43 40 32 29 27 28 32 41 51 54 56 59 61 61 62 58 53
43 38 40 41 41 41 45 46 48 55 60 60 62 68 71 74 72 76 82 91 84 72 66 62 53 48 45 41 32 29 25 26 29 36 46 56 59 64 69 70 69 62 55 54
46 41 41 42 43 46 48 53 56 57 60 63 67 70 74 78 83 89 96 83 73 69 65 56 50 46 42 33 28 24 25 29 35 43 51 59 65 70 76 79 67 56 53 55
50 43 45 45 49 51 53 54 56 58 63 68 72 76 86 91 92 95 83 75 72 67 57 52 46 41 33 28 25 26 27 34 42 49 56 62 70 77 83 67 59 58 57 59
53 56 60 63 63 63 61 61 62 66 69 75 80 87 93 94 95 85 80 75 66 58 53 46 40 33 30 27 28 32 34 40 49 56 64 72 79 82 71 66 64 61 60 59
70 71 69 70 68 67 66 67 69 75 81 86 87 92 98 94 87 82 76 64 59 53 46 39 33 31 28 29 32 36 41 49 56 63 72 78 81 74 73 70 67 65 61 60
73 73 72 70 71 71 71 76 83 85 86 95 97 98 95 84 79 73 64 60 53 46 38 34 31 29 30 33 36 40 48 56 63 70 76 79 74 73 76 74 71 65 63 61
72 75 76 77 79 81 83 86 89 92 98 98 97 87 83 79 71 64 60 51 44 38 35 32 30 32 35 36 39 45 54 62 66 73 79 83 73 71 76 73 67 67 65 61
80 83 83 84 85 85 85 86 95 97 97 89 85 82 74 67 63 57 49 43 38 37 35 32 34 38 42 43 44 47 55 64 68 76 83 85 79 76 80 73 66 67 67 63
86 87 89 89 91 92 96 96 94 92 89 86 78 70 65 60 57 49 43 38 35 35 36 37 40 44 48 50 51 53 57 64 69 75 84 89 86 81 84 83 73 66 67 67
92 94 94 94 94 94 95 93 89 86 79 73 69 64 60 57 49 43 37 33 34 35 40 44 46 50 52 56 58 58 61 64 67 72 80 88 91 81 84 91 87 76 71 70
93 87 88 86 85 89 90 89 82 76 73 70 66 60 54 49 43 36 33 34 41 43 45 50 54 56 58 59 65 69 70 69 70 71 78 85 90 89 88 92 96 94 85 77
87 85 85 83 81 80 79 76 73 71 65 58 53 51 47 41 36 35 37 39 42 50 53 57 61 59 59 62 66 71 78 77 77 76 78 86 91 93 93 95 98 98 98 96
85 86 85 82 76 74 71 67 62 55 52 49 46 41 36 35 38 41 42 46 47 53 58 59 64 64 63 64 69 72 75 80 82 83 85 89 92 93 96 96 97 99 98 98
81 76 72 67 62 58 54 52 49 46 43 40 39 40 42 43 45 49 47 49 49 53 59 61 64 64 68 65 71 75 76 80 85 86 85 86 83 84 84 86 89 91 94 96
69 65 61 54 50 47 44 41 39 40 41 43 45 48 50 50 44 53 54 52 54 55 56 57 58 59 61 65 75 79 81 83 84 83 81 77 74 71 69 69 71 75 77 84
61 54 50 47 45 44 43 43 44 46 45 44 45 46 50 55 55 45 48 47 45 47 55 58 62 67 70 77 82 84 86 87 85 83 78 72 66 61 55 54 56 58 61 64
55 51 50 50 49 49 49 48 44 40 37 35 37 43 41 42 45 46 46 46 50 49 57 63 68 73 77 81 84 88 89 87 87 83 77 70 65 60 56 55 52 49 49 51
54 54 54 55 54 50 44 40 39 40 43 45 45 45 43 41 43 47 51 54 56 58 68 71 74 75 79 82 85 88 90 90 88 84 78 74 69 64 61 58 56 54 52 51

GFSNGP_prec_cthk_006.txt.gz
RH
41 36 31 26 24 23 22 21 22 16 17 15 18 19 21 25 29 34 39 42 46 49 54 58 61 62 62 67 56 56 57 57 52 48 51 52 48 40 34 32 35 39 38 39
39 36 33 29 24 22 22 22 20 19 18 20 20 22 23 24 28 32 36 41 46 50 52 56 58 61 65 58 58 60 59 55 52 53 54 51 44 35 31 32 37 43 47 52
33 36 36 38 26 22 20 21 22 23 22 24 24 24 25 28 29 32 35 40 43 46 53 58 59 62 62 62 63 61 56 57 58 55 52 46 36 33 35 33 39 43 48 58
38 36 51 21 22 21 22 22 22 22 24 26 26 29 30 31 33 34 35 38 43 50 56 60 64 64 64 64 64 59 62 67 57 53 47 40 37 37 36 38 41 43 49 51
48 33 24 18 20 21 24 20 23 24 25 27 30 33 33 36 34 36 40 45 50 57 62 64 64 65 67 73 69 68 73 63 54 47 39 36 35 36 38 42 42 47 50 50
43 52 55 25 23 28 28 27 24 25 28 31 34 39 38 40 39 42 45 50 56 63 65 65 67 72 82 72 67 76 69 56 50 39 32 31 34 36 39 40 44 46 46 49
44 50 33 27 28 30 33 31 30 32 34 37 40 40 41 41 46 50 54 59 63 66 66 65 73 80 72 70 79 72 59 52 43 35 32 32 30 34 38 42 48 47 49 55
45 53 50 28 33 37 36 34 34 36 39 40 41 45 47 50 55 60 64 65 69 68 68 82 88 80 78 80 75 65 54 44 41 37 33 31 32 32 40 44 52 53 57 64
36 35 32 33 34 35 36 36 37 39 42 45 47 49 52 56 62 67 70 71 72 74 86 85 87 83 83 79 67 54 46 43 41 42 37 34 32 35 43 49 55 59 65 69
37 33 34 36 36 37 38 39 41 44 44 49 54 60 62 63 65 68 70 76 79 84 89 93 93 90 78 68 58 50 49 46 45 40 29 33 35 38 46 53 59 65 71 64
37 35 36 35 38 41 46 50 55 59 64 64 64 64 65 64 65 69 74 79 88 95 97 91 86 77 70 61 53 49 45 43 40 36 33 35 34 43 49 57 63 70 67 61
40 37 40 43 50 56 61 65 67 68 68 68 67 67 69 72 77 84 85 91 95 95 93 86 77 70 63 54 51 46 43 44 42 38 37 34 36 42 49 58 63 65 60 63
42 46 53 59 64 67 70 70 70 70 70 69 71 77 80 85 90 93 94 95 93 89 84 77 70 62 55 52 51 47 47 47 42 38 36 36 40 45 52 62 68 66 64 69
56 57 58 61 66 67 69 72 75 77 81 86 87 89 91 92 94 94 94 92 86 79 75 68 62 58 54 53 48 48 47 43 40 38 40 42 47 50 56 64 73 73 71 69
58 60 63 64 70 75 78 81 86 89 91 93 94 93 92 94 94 90 87 84 79 74 67 61 57 57 55 49 49 50 46 42 43 42 43 43 50 57 59 64 71 74 70 71
64 67 72 78 82 84 86 90 92 93 94 95 94 92 91 90 88 85 83 78 73 66 62 56 54 51 48 49 50 47 44 45 46 46 47 50 58 66 68 68 74 77 74 79
78 80 85 88 91 92 93 94 94 91 88 87 88 87 87 86 82 73 68 64 60 54 50 46 41 44 45 44 43 44 50 53 51 52 55 57 64 69 74 74 78 85 83 79
88 89 88 88 87 86 86 85 85 84 84 83 80 76 70 66 61 58 57 54 49 45 41 38 37 36 41 45 49 51 55 57 59 56 57 63 69 69 73 80 83 87 92 92
82 80 80 80 81 80 80 78 74 70 67 67 67 64 59 57 53 50 45 41 39 38 37 38 39 41 44 48 56 57 58 60 63 66 65 64 68 68 71 78 86 91 94 97
80 76 74 73 71 66 60 57 58 59 58 56 53 52 51 50 49 46 43 39 40 40 40 40 41 42 45 50 56 59 60 60 59 58 61 65 69 70 75 80 87 93 97 97
74 76 73 67 59 57 57 54 51 53 53 52 50 47 45 44 43 43 42 42 43 44 43 43 45 46 49 51 55 54 54 55 58 57 60 66 71 76 83 87 89 94 95 95
77 68 57 57 57 55 51 48 44 43 42 43 48 50 46 44 43 39 39 39 39 40 38 37 41 46 50 53 58 54 57 75 74 62 68 76 79 84 90 90 90 92 94 87
60 60 58 53 49 44 43 47 47 46 47 49 44 41 39 39 42 42 37 39 35 33 34 34 35 39 44 50 52 57 67 79 75 67 74 81 86 88 92 91 89 90 88 79
57 57 56 54 52 54 56 55 54 52 51 50 49 47 45 47 43 45 40 33 29 30 34 36 37 42 48 54 58 62 68 72 77 76 78 83 87 88 93 92 92 91 85 76
62 62 62 59 58 57 58 58 57 55 54 52 51 47 41 37 33 28 29 25 26 27 29 30 33 40 51 53 57 65 78 87 81 82 77 84 88 90 94 93 93 91 85 77
67 65 63 63 64 64 64 62 60 57 53 49 44 37 31 29 30 26 26 28 27 31 34 37 41 47 55 62 64 77 91 92 89 82 80 84 89 92 94 94 93 90 85 83
70 70 73 74 72 68 64 60 56 51 45 39 33 32 32 30 29 30 31 33 35 39 42 46 50 58 63 72 75 81 91 91 90 88 84 85 89 92 95 94 93 88 82 77

GFSNGP_prec_cthk_009.txt.gz
RH
36 39 39 32 30 27 23 21 25 21 19 18 20 20 21 24 22 27 33 35 40 45 50 54 57 61 64 62 66 65 74 66 62 61 60 61 61 58 52 44 42 42 47 47
34 33 37 34 28 23 23 21 21 20 20 20 22 23 21 25 25 27 32 36 41 45 50 53 55 58 60 63 66 71 69 68 63 68 69 65 60 58 49 44 44 47 51 50
36 36 35 40 29 25 23 23 22 23 23 28 28 25 25 27 30 30 33 36 39 43 48 53 54 56 62 69 69 70 73 65 71 76 72 63 60 53 51 50 52 52 53 49
39 41 53 23 23 23 24 23 24 25 25 26 28 28 28 29 31 33 35 39 43 46 48 52 56 59 70 70 68 78 65 79 82 79 68 62 54 52 53 56 59 57 53 53
52 35 27 23 20 21 21 21 25 26 25 28 29 28 31 38 39 40 40 41 43 47 53 60 63 66 72 73 75 70 88 80 80 72 65 56 52 54 59 54 56 57 56 53
39 52 57 32 27 26 26 27 29 28 30 30 32 36 39 44 42 42 41 46 50 55 61 65 67 71 72 74 85 89 82 82 83 69 59 52 56 52 51 56 55 57 56 51
45 51 37 29 28 26 29 35 33 32 32 36 37 37 42 41 41 46 50 55 59 65 71 73 72 74 78 86 85 84 81 86 77 63 60 61 49 48 50 48 52 55 54 51
47 56 50 27 28 32 38 33 34 35 37 41 40 40 42 46 46 51 58 65 68 74 74 73 75 80 85 88 88 88 89 80 67 63 57 52 51 46 52 54 53 54 51 56
35 39 37 30 30 34 34 33 35 37 37 40 43 46 51 59 62 60 63 65 66 67 75 79 84 90 94 92 94 90 76 68 63 59 58 56 50 47 46 53 54 52 57 59
33 33 35 35 34 35 36 38 40 42 46 50 56 60 63 64 64 61 61 61 65 70 77 84 89 95 97 90 84 78 65 63 58 58 59 46 42 42 50 50 51 54 60 63
36 33 35 37 39 43 40 45 50 55 61 64 65 65 66 66 62 64 65 71 75 84 90 92 93 91 88 83 74 67 63 60 59 53 51 49 43 42 42 44 46 56 62 66
41 40 37 40 46 47 52 59 63 64 64 63 63 68 68 67 71 76 82 85 88 91 93 94 91 87 82 74 67 63 59 56 57 56 50 44 37 36 38 40 45 52 61 66
36 40 43 48 56 57 58 59 59 59 61 66 68 72 76 81 85 89 88 89 91 93 94 91 84 78 71 63 59 56 54 49 48 47 43 43 44 45 42 48 49 53 60 66
49 52 59 58 60 60 62 63 66 70 76 78 79 82 86 88 87 87 86 88 88 85 82 78 72 66 61 58 55 49 45 41 42 41 41 47 51 51 52 53 57 60 63 69
55 58 60 62 65 69 72 75 78 81 82 84 84 85 84 83 83 85 85 83 79 75 69 65 62 55 54 47 45 41 40 39 41 45 47 49 51 54 56 59 61 66 70 68
65 65 67 70 73 77 83 87 85 86 85 84 82 82 82 80 79 74 70 68 66 62 59 52 48 44 38 37 38 40 41 44 46 49 51 52 54 56 60 64 66 67 74 75
76 77 80 83 87 88 86 83 82 82 79 80 82 74 66 60 57 57 54 55 55 54 50 44 37 37 37 36 39 46 48 55 58 55 57 60 60 64 65 68 71 74 77 85
82 86 88 87 86 82 81 80 78 73 69 61 51 47 45 47 46 43 43 41 39 40 38 39 37 38 40 42 46 50 53 54 59 60 62 65 63 63 62 67 72 73 72 82
84 84 85 84 83 78 72 67 61 51 45 42 39 38 37 38 41 40 43 43 41 40 46 45 44 44 44 45 48 49 52 53 55 58 61 62 61 62 61 62 66 73 77 82
84 81 77 71 65 61 56 48 44 42 40 38 38 40 42 42 40 39 40 38 40 46 45 46 48 48 47 46 50 49 48 52 54 59 58 59 66 71 68 68 72 76 83 87
79 74 69 62 56 49 45 42 41 40 39 38 38 39 39 35 36 37 40 42 45 48 48 42 36 32 34 33 35 41 47 51 58 66 66 65 82 74 71 75 80 85 88 93
80 72 62 55 51 46 41 38 38 39 41 41 41 40 40 42 43 47 52 54 54 47 40 33 31 32 33 32 34 36 42 47 52 56 61 74 83 76 75 79 85 89 92 93
70 59 55 51 49 45 45 45 46 49 49 47 46 46 46 49 53 51 49 50 42 36 31 29 30 26 26 27 32 37 44 51 56 70 75 79 84 79 79 86 89 91 94 94
52 54 54 55 55 53 52 53 54 55 54 53 55 52 52 53 52 49 44 37 33 29 29 31 28 29 31 34 37 44 55 58 61 70 79 84 91 88 85 86 86 91 93 95
61 61 62 62 59 59 59 63 64 63 60 60 61 58 54 51 45 39 34 32 31 31 32 32 32 34 38 42 45 51 54 62 69 72 79 90 95 96 88 87 79 82 90 95
66 68 67 62 64 67 68 64 62 65 64 63 59 54 47 41 36 34 33 32 31 32 33 34 35 39 44 49 55 59 65 71 73 80 89 91 97 97 95 94 87 79 84 92
71 69 72 75 76 71 66 64 68 67 65 60 53 47 39 35 33 32 31 31 32 33 35 36 39 44 47 53 59 64 69 76 80 82 88 91 92 94 91 88 85 76 78 85

GFSNGP_prec_cthk_012.txt.gz
RH
32 42 48 51 43 37 32 30 31 26 29 26 25 27 28 25 26 23 26 41 44 48 53 54 51 54 59 62 64 67 70 74 77 78 75 72 69 71 76 74 60 57 55 63
36 33 38 39 40 34 30 32 31 25 29 27 27 25 25 24 25 28 26 28 39 46 51 53 58 61 62 62 61 64 76 74 76 76 76 80 84 76 70 65 62 64 66 65
43 37 36 39 33 31 29 29 26 28 24 25 29 30 28 27 28 30 28 29 34 42 49 53 54 56 59 60 62 67 75 75 76 79 83 88 80 75 73 66 74 71 70 73
52 46 51 26 25 25 26 26 26 27 30 32 30 31 29 26 29 32 38 39 40 39 41 45 51 54 59 63 66 71 75 76 78 86 91 89 83 74 66 77 68 71 73 76
63 45 31 30 26 24 23 24 25 26 26 29 29 29 29 34 38 40 40 39 39 42 44 50 56 61 64 70 74 73 76 81 89 94 88 83 74 73 72 65 67 69 69 67
47 55 56 37 31 27 26 31 29 28 30 31 31 37 37 40 40 38 38 39 45 49 57 62 67 72 69 73 79 83 84 91 89 91 90 81 77 70 65 64 62 62 64 61
54 58 47 35 32 28 32 39 35 34 32 32 36 38 38 39 38 40 42 47 55 62 66 68 70 73 78 82 85 86 94 92 92 92 83 76 70 66 65 59 55 54 52 51
54 63 56 30 29 33 40 37 32 33 34 34 36 37 37 41 46 53 56 58 61 61 62 68 74 81 81 82 89 94 92 95 92 82 77 74 70 64 58 53 47 51 48 44
41 45 37 33 32 31 33 34 34 35 37 40 42 44 52 56 61 61 60 57 57 62 68 74 78 82 87 93 95 97 95 92 82 75 70 67 61 51 43 41 45 48 44 44
36 29 35 36 36 34 38 37 40 40 42 49 52 59 62 64 60 57 62 61 61 67 73 77 80 85 88 93 94 96 89 81 73 70 65 57 53 45 38 40 42 40 42 49
36 34 35 37 42 44 40 40 44 49 56 58 61 61 62 60 61 64 68 72 73 74 78 80 83 86 90 91 90 83 75 70 66 58 53 49 44 40 37 34 38 42 51 56
44 42 38 40 44 42 44 47 51 56 57 58 60 60 61 67 71 75 78 81 81 82 81 80 81 81 77 78 75 72 65 58 53 48 43 40 39 36 36 36 42 47 53 58
40 38 39 42 41 44 50 54 57 59 62 63 63 67 70 77 81 83 82 80 80 80 78 76 72 67 63 67 63 55 50 46 43 39 35 36 40 40 38 41 47 49 57 65
37 42 50 51 52 55 58 62 65 66 67 70 76 77 79 79 77 75 75 75 72 67 61 55 55 52 50 50 50 46 38 36 36 37 40 44 46 47 49 48 46 50 58 63
49 52 55 59 62 67 70 73 74 76 81 82 81 77 73 71 71 71 68 61 54 48 48 48 44 39 37 36 38 33 35 37 39 43 47 50 52 53 56 57 56 56 60 64
59 61 65 70 74 76 79 80 83 84 81 75 73 72 72 69 64 57 51 44 39 34 33 32 33 34 35 34 36 40 42 47 52 53 53 55 55 56 57 59 61 64 65 72
69 70 75 76 79 82 85 87 84 80 77 75 70 62 50 42 37 37 34 33 31 31 33 35 36 40 39 41 43 46 51 55 57 55 57 58 59 61 62 63 61 63 63 62
75 76 78 83 87 89 87 84 79 73 66 59 51 41 35 30 30 31 33 34 34 36 41 42 44 47 47 50 54 56 55 50 49 52 56 57 55 63 62 65 63 65 66 65
78 83 88 90 88 86 79 71 65 59 52 42 36 32 32 33 34 35 33 31 32 40 43 45 48 50 49 46 43 40 40 40 45 49 50 53 58 62 67 67 64 73 77 75
87 89 86 81 77 73 69 65 61 47 39 34 34 32 30 29 29 30 31 35 42 45 47 48 48 44 39 38 37 33 31 30 32 34 36 52 57 59 70 89 78 76 80 85
86 81 79 78 76 71 64 59 44 36 33 31 31 33 34 35 37 41 45 46 50 51 51 46 37 36 32 30 27 26 27 31 34 34 35 42 47 50 71 73 74 77 86 88
83 80 80 77 69 63 52 42 37 36 36 39 41 42 42 43 43 46 48 52 50 45 36 34 34 31 30 28 30 30 31 33 36 40 52 55 56 61 79 84 89 88 93 89
83 78 72 67 61 53 47 43 43 45 48 48 48 49 49 47 49 50 52 52 48 39 33 34 29 28 29 29 31 35 39 40 43 45 53 62 62 76 89 86 87 92 95 97
70 68 66 59 56 54 53 53 53 55 58 57 56 52 49 50 54 56 52 47 39 31 30 31 28 27 29 31 35 39 43 45 51 57 58 61 69 72 75 82 90 93 98 96
60 60 62 62 61 62 60 61 63 64 61 59 60 56 58 59 56 49 42 35 33 32 31 30 30 31 33 35 38 41 46 51 56 60 67 71 77 79 81 84 91 95 97 94
65 65 66 67 66 65 64 64 65 66 63 66 62 60 58 53 44 38 35 34 32 30 31 32 33 35 36 38 41 44 47 51 56 63 69 74 80 83 86 90 93 96 93 89
71 73 71 71 71 68 67 67 68 67 71 68 62 57 50 40 37 35 33 32 31 32 32 34 36 37 39 42 45 49 52 56 59 61 67 73 81 85 89 89 90 90 91 90

GFSNGP_prec_cthk_015.txt.gz
RH
26 28 39 43 47 49 36 35 40 34 30 25 33 32 31 30 29 28 29 38 43 44 52 57 59 66 70 73 71 68 65 62 65 67 72 77 78 78 87 80 73 75 73 78
27 27 36 39 49 45 43 38 36 35 32 30 33 31 31 30 29 32 32 29 27 35 48 51 59 65 68 68 64 64 64 67 68 68 72 75 83 89 86 81 76 83 81 80
40 36 33 37 28 31 34 40 38 34 31 32 35 31 29 28 28 29 28 30 32 35 40 44 46 50 51 51 58 64 73 73 70 72 75 81 91 92 89 83 85 82 79 79
59 50 44 27 24 26 28 31 30 32 33 32 32 33 33 33 33 30 32 35 36 36 38 41 44 46 51 61 67 72 72 71 74 80 83 89 96 92 88 86 82 75 74 74
62 57 41 30 28 28 27 31 29 30 32 33 34 33 36 35 34 36 37 36 35 36 36 41 53 60 65 69 68 68 71 75 76 85 89 96 95 91 88 77 74 68 68 71
57 57 50 36 31 29 28 38 32 31 32 33 31 38 38 37 36 35 35 33 36 41 50 55 60 62 65 70 74 76 75 79 83 88 96 96 93 85 78 72 68 68 58 48
61 58 47 37 33 31 37 40 34 33 33 33 34 35 35 35 36 36 35 41 53 56 56 57 60 67 75 77 81 84 86 87 92 97 96 93 86 77 74 70 60 45 44 41
59 61 54 31 30 31 36 34 33 33 31 32 33 34 35 38 42 44 50 55 54 54 61 67 71 77 82 84 88 87 90 95 95 94 93 86 83 77 69 53 44 42 40 38
41 44 32 28 30 31 31 32 31 32 35 36 37 39 44 50 54 54 52 53 57 63 68 74 78 79 80 83 86 88 88 90 90 88 83 77 70 59 51 47 42 37 34 39
38 35 34 31 32 33 34 33 34 36 35 38 44 48 52 56 58 57 57 60 64 68 72 73 75 76 76 76 79 81 81 76 71 67 63 64 57 49 43 41 38 37 41 43
36 32 38 40 41 41 42 41 38 41 43 47 52 54 56 58 59 60 64 65 67 72 74 72 71 70 69 64 61 57 56 54 54 54 50 46 37 35 35 40 43 44 42 46
43 38 38 42 42 43 42 43 45 48 50 53 57 59 59 61 66 73 77 79 76 71 69 67 64 59 51 45 45 47 46 42 37 31 28 35 34 36 44 47 49 48 48 50
40 38 39 41 42 42 43 47 49 52 57 61 66 68 71 76 81 79 73 70 67 63 60 55 49 41 38 36 36 32 28 29 29 28 32 34 37 42 45 50 51 48 52 53
44 41 42 44 50 52 54 57 59 62 68 72 73 76 79 77 72 69 68 66 60 52 46 40 37 36 36 32 30 31 32 31 31 34 38 41 46 53 55 52 50 48 51 53
42 44 51 57 61 66 67 67 71 77 79 80 81 80 76 73 71 70 64 52 46 40 32 29 31 32 30 29 29 32 34 36 44 47 49 56 60 61 58 57 58 54 50 52
51 57 62 67 72 74 73 75 78 82 84 83 80 78 77 72 66 57 45 37 31 27 28 30 30 32 33 36 40 43 45 49 56 58 60 63 63 62 65 69 69 61 55 57
61 67 70 75 76 74 76 80 83 84 85 82 74 67 60 53 44 38 34 31 30 32 36 37 38 39 40 43 45 44 42 44 46 50 50 54 53 54 55 56 53 52 68 60
69 74 75 77 81 83 86 88 87 82 76 70 65 60 53 43 40 35 28 26 28 34 37 37 38 39 41 42 40 41 41 38 33 31 29 29 30 35 56 50 52 70 60 66
79 81 83 84 85 86 84 80 78 75 71 67 62 55 44 37 30 27 29 31 34 37 38 41 42 43 39 37 38 34 30 28 28 28 28 26 26 26 26 28 55 87 59 74
87 86 85 87 85 83 81 78 74 70 65 58 49 41 39 34 32 34 38 39 42 45 46 41 36 34 37 36 32 29 29 30 29 29 30 31 33 35 36 38 39 45 64 96
88 87 85 82 80 80 78 75 70 63 54 47 45 41 37 38 39 39 37 42 43 45 41 37 38 35 32 28 27 27 29 30 31 32 36 39 39 44 55 56 55 57 63 79
89 82 83 84 83 81 77 67 57 51 48 44 42 44 44 44 43 44 45 46 44 40 38 35 30 28 28 27 27 26 28 30 34 39 42 44 49 50 54 62 65 73 85 92
85 86 86 87 83 71 62 58 53 48 45 47 49 49 48 49 49 48 47 46 44 39 32 31 30 28 26 26 26 27 30 32 37 42 45 50 55 57 61 66 70 80 89 91
84 85 87 81 69 66 63 57 54 56 54 53 53 52 52 53 53 52 49 44 38 35 32 30 30 30 28 27 29 30 34 38 39 43 46 52 57 63 68 70 75 78 81 86
82 79 76 72 71 66 62 59 58 60 58 59 59 56 56 55 52 45 40 38 37 34 32 32 32 31 30 32 33 36 39 42 44 47 50 52 54 61 69 76 80 83 87 90
77 77 76 72 70 68 65 66 64 62 62 64 63 58 56 50 41 38 37 36 33 34 34 32 32 33 34 36 39 42 44 46 48 52 55 59 63 66 67 73 81 88 90 91
76 73 74 75 76 73 70 72 69 67 68 71 68 55 46 41 39 36 36 36 34 35 35 35 35 35 38 41 44 46 48 51 55 59 63 68 73 76 79 80 80 83 91 92

GFSNGP_prec_cthk_021.txt.gz
RH
50 46 41 37 40 42 44 44 47 38 40 31 32 34 28 28 28 28 29 31 36 40 46 50 51 47 49 54 56 65 71 74 74 73 72 74 76 74 72 76 82 81 80 89
59 52 45 41 37 46 40 35 35 38 38 34 33 35 31 30 30 30 31 34 37 39 41 41 38 36 39 43 49 53 60 60 64 65 70 76 72 72 77 80 80 82 93 93
55 53 46 46 35 28 27 30 34 40 40 39 41 41 38 35 35 36 37 39 39 38 37 36 36 35 33 32 38 45 52 56 66 70 72 73 76 77 77 79 87 92 93 94
59 49 53 27 26 25 25 23 24 30 37 38 39 43 43 42 38 39 41 39 38 39 38 36 32 29 29 33 42 51 58 62 66 76 81 79 79 79 80 91 97 85 86 86
55 59 50 35 31 32 31 29 26 28 30 33 36 38 40 40 39 38 37 37 37 36 34 32 29 30 37 45 50 53 57 64 73 77 77 76 86 97 89 96 92 82 78 74
64 67 70 53 48 45 39 43 34 33 35 37 37 42 41 39 38 37 37 36 35 35 34 34 36 40 42 47 52 57 63 70 80 78 85 83 81 84 82 79 77 80 75 63
65 65 59 44 43 40 43 37 36 38 39 39 40 40 40 39 37 36 35 35 35 35 38 40 40 41 46 52 59 67 74 77 78 81 84 84 81 78 79 76 71 62 49 43
57 60 52 37 38 36 34 37 36 41 42 41 39 37 36 36 35 35 36 37 40 41 42 42 45 50 56 62 69 72 73 74 78 81 78 76 73 71 70 61 47 41 39 37
40 40 34 31 30 33 35 36 36 34 34 33 34 34 34 34 35 39 43 46 47 47 48 52 58 62 64 66 69 71 72 72 70 69 66 58 49 45 41 41 39 36 30 26
33 31 30 29 28 27 28 29 30 32 33 35 33 34 37 42 46 49 51 52 53 54 58 64 68 70 69 70 71 70 64 58 51 46 42 37 34 32 31 29 29 29 30 30
34 33 32 32 30 29 29 30 32 34 37 38 39 43 48 53 54 56 58 61 63 66 72 74 70 67 65 64 60 54 49 46 41 36 30 27 26 26 27 28 32 34 38 44
37 33 33 34 33 32 32 36 39 41 44 46 50 54 58 59 62 66 70 71 71 74 71 67 66 66 64 59 52 44 38 34 29 24 23 25 26 26 31 34 39 46 53 61
31 35 37 38 37 38 39 41 44 47 49 54 58 59 65 70 75 76 73 73 74 71 69 69 65 61 55 48 38 33 32 30 27 27 30 32 35 38 36 33 45 49 58 63
38 41 45 41 42 43 45 46 49 53 58 60 64 72 77 79 78 74 74 76 73 71 67 61 56 51 46 42 38 37 35 32 31 31 30 30 30 31 33 34 34 29 34 37
47 48 48 48 50 52 51 53 57 62 65 70 77 81 82 79 76 75 75 74 70 63 58 56 53 50 45 40 36 30 27 26 25 25 25 25 25 24 24 23 24 24 20 17
57 59 60 60 61 59 58 59 62 69 75 83 85 84 82 79 78 77 71 67 62 59 57 54 49 43 40 34 28 25 24 24 24 24 23 23 23 25 25 25 26 28 27 26
68 73 71 70 67 65 65 67 72 81 88 89 87 84 79 76 74 72 64 62 59 56 54 48 42 38 32 27 25 24 24 22 21 21 23 25 27 26 26 27 29 30 32 33
75 73 78 74 72 73 78 83 88 91 91 88 81 78 79 75 70 63 60 59 59 56 48 42 38 32 29 28 26 23 21 21 22 23 24 25 25 25 27 31 33 35 36 38
72 74 81 81 83 86 88 89 92 91 84 81 82 79 73 67 65 64 63 61 54 46 44 41 37 33 30 25 22 23 24 24 23 24 24 24 25 28 29 32 34 37 41 45
89 96 96 88 87 89 93 91 84 83 83 79 75 70 69 69 67 65 61 56 51 48 46 41 37 31 25 24 25 26 26 25 24 24 25 27 28 29 32 34 37 40 44 46
92 93 96 95 94 89 87 86 83 80 77 74 72 72 70 68 65 61 56 53 49 45 42 40 33 27 26 27 27 27 26 25 25 27 28 27 29 31 35 37 40 41 43 47
98 98 97 95 93 90 86 84 81 78 76 75 74 73 69 63 59 57 54 52 51 49 43 34 29 30 30 30 29 27 27 27 28 29 28 31 32 35 39 40 42 45 49 51
96 96 95 92 90 87 87 84 83 82 81 79 75 68 63 61 60 60 59 58 55 49 41 36 35 34 34 32 30 29 28 29 29 28 32 35 38 41 42 45 49 52 55 58
97 92 91 91 90 91 89 88 88 86 81 76 70 67 67 68 68 67 65 61 55 48 45 41 39 38 36 33 32 31 30 31 29 32 36 38 43 45 47 50 53 58 62 66
92 92 94 95 96 93 92 91 86 81 78 75 74 74 72 69 67 64 60 54 46 45 42 41 39 38 36 35 34 32 32 32 31 36 38 42 44 45 48 51 54 58 61 65
97 96 97 97 96 91 88 84 83 82 78 77 74 71 69 70 69 64 59 56 50 44 41 39 39 38 37 37 35 34 33 32 35 38 41 42 42 44 47 49 54 56 60 62
97 97 92 87 87 87 88 89 86 82 80 78 78 75 73 70 65 59 52 47 44 41 39 38 38 40 40 38 35 34 33 36 38 40 42 44 45 46 47 50 52 55 57 59

GFSNGP_prec_cthk_024.txt.gz
RH
37 37 40 43 45 50 43 43 48 39 42 34 37 41 33 30 28 29 31 31 31 33 37 41 48 50 51 48 45 44 48 54 60 68 71 76 77 70 73 77 79 85 81 84
52 51 49 50 44 39 35 32 35 37 36 30 31 37 39 36 37 33 32 33 34 35 36 38 39 38 37 34 34 35 37 42 53 64 64 67 72 76 82 86 83 85 87 95
59 63 57 55 44 41 36 32 29 33 29 31 34 42 44 43 41 39 38 39 37 37 37 36 34 32 32 32 29 28 32 41 51 57 64 74 76 82 86 85 88 87 90 97
69 63 64 38 34 30 30 27 29 29 26 26 29 36 40 42 42 44 44 42 39 38 37 36 34 32 29 28 30 35 43 48 54 59 68 77 81 84 84 83 95 95 88 88
66 63 46 35 30 38 39 28 27 25 27 28 29 31 36 39 42 43 42 41 39 37 34 33 31 30 29 32 37 42 46 50 58 65 75 79 85 85 86 85 96 92 81 78
66 64 56 35 33 38 49 45 38 35 35 36 35 40 44 44 43 42 41 38 36 35 34 34 33 34 35 37 40 44 51 59 69 76 80 83 86 90 86 80 78 79 78 76
76 66 52 38 34 38 49 37 37 38 39 40 39 38 39 40 41 39 38 36 35 35 34 36 39 41 41 43 48 54 62 70 73 76 77 79 79 77 77 76 76 70 58 51
71 62 56 35 33 38 38 33 32 36 38 39 38 38 40 38 35 34 33 33 35 38 41 43 44 46 50 54 58 62 65 66 69 72 74 73 71 69 63 55 48 40 32 28
48 50 38 28 28 33 32 33 34 35 38 38 37 35 33 33 33 33 35 38 42 45 47 50 54 55 58 62 65 67 68 71 70 67 62 56 51 46 40 34 28 24 24 23
46 39 28 26 26 27 26 28 30 30 30 31 31 32 32 33 35 39 44 46 50 53 57 61 62 63 64 66 66 66 65 61 58 56 51 43 34 31 28 25 24 25 28 30
44 33 28 26 26 28 28 28 28 29 29 30 32 34 36 39 44 49 53 56 60 64 68 69 67 64 63 63 64 62 58 53 47 41 36 32 32 31 28 29 34 35 38 42
42 24 25 23 27 28 29 29 29 30 34 36 38 40 45 50 55 60 63 67 71 74 74 69 66 65 66 64 60 54 50 45 41 38 36 35 31 27 27 26 27 30 31 37
27 26 27 29 31 33 33 34 35 37 40 43 46 50 55 61 67 70 76 78 78 77 72 69 68 66 62 58 56 52 48 44 38 34 30 26 23 21 18 18 20 21 22 23
41 35 34 34 36 39 39 40 41 44 47 50 54 61 67 69 75 81 85 84 80 76 72 69 67 63 60 58 54 50 44 36 33 30 26 24 22 19 17 16 15 15 18 20
53 45 37 40 44 45 45 45 48 51 54 59 65 71 73 78 82 88 89 84 79 74 72 69 64 60 57 56 52 43 35 34 33 30 26 21 18 18 19 20 20 19 17 17
51 49 49 51 53 54 56 57 60 63 66 71 73 75 80 86 89 90 86 80 77 75 68 64 61 58 57 51 43 37 36 34 29 24 21 19 19 20 20 20 20 22 24 26
69 69 70 71 71 71 71 75 74 74 77 76 77 84 90 93 91 82 82 82 76 68 65 63 61 58 52 49 44 37 32 26 25 22 20 21 21 20 20 22 24 24 25 28
80 81 81 77 77 82 84 84 88 82 78 83 86 90 89 85 84 82 77 71 68 68 66 64 60 54 50 42 36 31 29 26 22 22 24 23 21 21 23 24 24 25 26 30
81 78 77 76 78 81 81 83 85 89 93 91 88 89 89 85 79 75 71 71 69 66 64 60 54 46 42 38 34 30 26 24 26 27 25 23 23 24 25 25 26 28 31 33
84 82 81 82 86 89 94 97 96 94 94 94 92 86 80 78 76 72 71 69 68 65 60 52 47 45 42 37 33 30 28 30 29 27 25 24 25 26 26 27 29 32 35 39
86 89 91 93 94 94 97 97 97 94 92 86 84 80 75 75 75 74 72 70 64 59 55 52 50 45 41 37 34 31 31 29 27 27 26 26 27 27 27 30 33 37 41 44
98 98 98 98 97 97 97 96 92 88 85 82 80 81 81 79 77 74 69 65 62 60 58 54 48 44 39 32 32 32 29 29 29 29 28 29 28 28 30 33 36 40 44 48
98 97 97 97 97 97 96 92 87 85 85 86 86 85 83 79 73 70 67 67 65 63 58 51 43 39 37 35 33 31 30 30 31 31 31 30 29 30 32 34 37 40 44 46
97 97 97 97 97 94 92 91 90 91 91 90 88 84 78 74 70 68 69 69 67 61 54 48 42 39 37 36 34 31 32 34 34 33 31 30 31 33 34 36 38 40 44 47
98 98 97 97 96 95 95 95 95 95 94 89 83 77 73 72 73 74 74 69 64 58 50 44 40 40 39 35 33 34 36 35 35 32 30 30 33 34 36 39 41 43 45 47
97 97 97 97 97 97 98 98 98 96 91 86 84 84 83 83 78 75 71 66 61 55 48 43 44 40 36 36 37 38 38 38 34 31 32 33 35 37 38 38 41 44 45 48
97 97 98 98 98 98 97 96 94 95 96 95 95 90 86 81 77 73 69 62 57 52 49 46 38 37 37 39 40 41 40 37 33 32 34 36 37 36 35 37 39 42 48 55

GFSNGP_prec_cthk_027.txt.gz
RH
39 37 40 36 40 43 44 44 47 41 38 36 33 29 26 32 33 31 31 33 35 37 38 38 39 42 46 46 45 44 43 40 38 41 47 52 59 62 69 74 80 78 78 85
46 46 41 39 36 37 43 46 43 33 29 31 31 28 25 33 35 39 39 38 39 39 39 38 37 38 41 40 37 33 32 34 34 34 42 52 61 64 70 77 78 78 77 87
50 52 51 49 43 45 49 45 38 35 27 28 27 27 27 34 41 44 44 42 41 41 41 40 39 39 37 35 31 31 29 29 34 42 49 54 60 67 75 83 76 82 81 96
61 54 60 38 47 49 47 36 32 32 29 26 28 31 29 30 35 40 44 45 45 44 42 41 39 37 34 32 30 29 32 38 43 47 51 58 67 73 79 78 85 95 90 94
69 59 44 38 42 41 41 27 31 41 34 29 29 29 30 31 31 33 36 41 41 41 41 40 37 34 32 29 30 34 39 42 47 52 59 65 72 77 84 88 85 85 86 86
65 62 55 40 37 39 37 30 29 46 47 45 39 36 34 37 38 38 40 41 41 41 38 35 34 32 31 33 37 41 46 51 56 60 63 68 72 72 76 78 77 77 78 77
59 59 51 43 44 43 44 25 29 39 37 38 41 39 40 40 39 40 42 41 37 36 35 33 33 35 37 41 46 51 53 55 57 58 60 63 68 72 72 72 72 68 59 49
62 66 60 44 46 40 30 24 31 36 34 37 38 40 41 41 41 41 39 37 35 34 34 37 40 43 47 51 54 57 59 59 60 63 69 71 66 62 58 50 43 37 32 29
57 48 44 40 33 33 25 25 32 33 35 37 38 40 40 40 40 38 36 36 37 38 41 45 48 52 55 59 61 63 63 61 59 58 56 53 49 43 38 36 34 31 31 30
55 48 41 36 35 30 22 24 25 30 33 36 36 38 38 37 36 37 38 40 44 48 51 54 58 62 62 61 60 59 57 56 54 51 48 46 44 42 40 37 34 34 33 32
62 47 39 37 34 27 22 24 26 28 32 34 33 36 36 37 38 40 43 48 53 56 60 63 66 66 64 61 61 58 55 52 49 49 48 47 43 38 33 29 28 28 28 26
61 42 45 43 28 22 23 26 27 28 31 33 35 36 39 41 44 47 52 58 62 65 68 70 71 70 65 62 59 55 54 51 48 47 45 40 36 32 31 29 26 23 22 19
59 57 48 33 27 23 26 28 31 31 32 34 38 40 44 47 51 56 61 65 69 71 74 76 73 68 65 62 60 55 52 50 48 46 41 36 34 32 25 23 23 20 17 17
63 63 52 46 38 31 30 32 33 35 38 41 43 47 50 53 59 64 68 71 74 77 78 77 72 68 68 61 56 54 52 50 46 41 39 36 29 25 24 24 22 18 17 17
66 65 64 61 52 44 44 43 43 44 45 48 52 56 59 64 69 72 75 76 80 79 76 75 74 68 61 59 58 56 53 50 47 41 34 27 26 26 25 22 20 19 16 16
67 70 69 70 60 59 58 58 56 56 58 60 66 72 76 78 79 78 79 81 81 77 81 76 70 63 61 61 59 56 52 45 39 32 28 29 28 27 24 22 21 18 17 18
72 76 74 65 65 66 67 70 71 71 74 78 85 88 87 86 83 84 84 83 90 84 76 70 66 64 62 61 58 50 45 39 34 32 32 31 29 26 24 22 21 20 21 22
81 78 79 84 83 80 84 85 87 88 88 91 88 88 92 95 90 88 92 88 82 76 73 70 67 64 63 59 52 48 42 38 36 36 34 29 25 24 24 22 23 23 23 23
93 87 89 91 90 85 85 91 96 97 94 96 97 96 96 93 95 90 86 83 79 75 72 70 69 66 60 55 51 47 42 40 39 34 29 26 26 25 23 25 26 26 24 25
85 92 91 95 95 95 95 94 90 90 95 97 97 97 97 95 89 86 82 79 77 75 73 71 68 63 59 56 51 46 42 38 32 30 28 27 25 25 27 28 27 25 25 26
91 92 94 93 91 90 91 94 97 98 98 97 97 95 90 87 85 83 82 80 77 75 75 71 68 65 59 54 51 46 38 33 32 30 29 26 27 29 31 30 26 25 26 26
96 97 97 97 98 98 98 97 97 97 97 96 93 90 88 88 88 85 82 78 77 77 75 72 68 65 59 53 47 40 37 34 33 31 28 29 30 32 32 28 27 27 28 29
98 98 98 98 98 97 97 97 97 96 94 89 87 87 88 88 86 81 79 78 79 78 75 73 70 65 60 54 49 44 38 36 35 31 31 33 34 35 32 30 30 30 30 32
97 97 97 97 97 96 96 96 94 91 89 91 92 92 91 88 85 82 81 83 84 83 77 71 68 65 59 53 49 43 41 39 34 34 35 37 38 36 32 32 32 32 32 33
97 97 97 97 97 97 96 95 95 97 97 97 96 94 92 90 91 93 93 91 86 84 78 71 66 59 56 53 49 47 43 37 36 38 40 41 40 36 34 34 32 31 31 34
97 97 97 97 97 97 97 97 97 97 98 98 98 98 98 98 97 96 95 90 86 82 75 67 62 60 58 54 49 43 39 40 41 44 45 43 39 36 35 35 35 34 34 34
97 97 97 97 97 97 97 97 98 98 98 98 98 98 98 98 97 95 90 87 83 76 67 66 63 59 53 48 43 43 44 46 48 49 45 41 38 37 37 38 38 38 37 38

GFSNGP_prec_cthk_030.txt.gz
RH
31 36 37 36 42 46 47 43 45 38 42 38 34 34 40 31 27 33 34 34 33 36 41 44 46 45 47 47 52 57 53 49 48 44 40 41 43 46 52 59 65 69 73 67
42 41 41 38 35 38 37 37 36 34 33 36 31 29 31 29 23 31 34 36 41 40 44 48 50 51 48 48 48 47 45 39 35 34 36 36 41 49 55 59 62 61 65 71
45 46 45 51 38 34 32 30 31 36 36 36 31 28 29 32 29 28 37 41 44 47 49 48 47 48 46 43 42 41 38 36 35 34 36 42 47 51 54 58 62 66 71 81
53 60 67 36 36 35 35 36 40 41 38 31 31 36 33 33 34 31 31 40 43 44 45 47 48 45 42 41 39 37 34 33 33 37 42 48 53 58 62 65 71 74 77 81
66 52 41 37 33 33 36 42 44 31 29 30 32 41 35 29 32 33 34 35 36 36 38 43 42 42 41 36 32 31 30 34 38 44 50 54 58 62 64 66 67 69 70 72
63 55 56 37 40 42 39 32 34 31 25 29 39 43 42 39 37 37 38 39 40 42 43 42 40 37 34 33 31 33 37 42 47 52 56 58 59 59 57 60 64 63 65 66
61 60 42 35 37 43 45 29 38 28 23 33 38 36 37 41 44 44 43 42 43 45 43 39 38 36 32 35 39 44 47 50 53 56 57 57 56 58 59 61 62 59 52 46
61 68 55 38 40 46 40 36 30 25 23 34 37 37 40 42 45 45 45 45 45 42 41 39 37 36 39 44 49 51 53 54 57 57 56 56 56 53 50 48 44 44 43 40
51 46 42 40 40 48 42 34 33 23 25 34 35 36 39 42 44 44 44 43 43 41 39 40 41 43 48 53 55 55 57 56 54 51 50 47 45 44 47 48 46 45 41 41
60 49 49 47 45 44 41 35 33 23 23 29 33 35 37 39 40 41 41 40 40 39 41 45 48 52 56 58 58 57 54 54 51 48 47 46 45 45 45 42 38 36 37 36
59 54 52 56 53 42 41 37 31 23 25 27 32 34 35 37 38 39 40 40 41 44 49 53 56 58 58 59 60 58 55 52 50 49 45 44 45 42 39 36 33 30 28 25
60 56 58 56 49 48 44 37 26 23 26 29 31 34 36 38 40 41 42 44 47 51 56 60 60 60 62 62 60 58 55 53 49 46 46 47 45 45 39 35 31 27 26 26
63 61 57 54 53 49 36 32 26 26 28 30 34 37 39 40 43 45 49 52 55 59 64 65 64 65 65 63 60 59 56 50 49 50 49 46 44 42 40 38 30 29 28 27
56 62 65 62 61 54 45 34 32 32 33 35 37 40 41 45 49 53 57 61 65 69 71 71 67 66 65 64 63 57 53 53 53 51 48 44 39 36 35 35 36 39 33 26
53 62 64 62 62 61 55 50 45 44 43 44 44 46 50 55 59 64 70 74 77 76 74 70 68 67 69 66 61 58 58 56 53 49 45 40 37 36 36 38 39 35 31 28
58 71 70 68 68 68 68 67 61 57 59 59 62 66 69 70 76 82 86 84 78 77 78 76 75 73 69 66 64 64 60 57 53 48 44 41 39 39 39 37 35 32 30 26
60 70 75 78 75 72 70 74 72 73 74 76 77 77 82 86 89 93 92 92 87 82 86 84 78 74 72 71 67 64 61 57 53 48 45 44 43 40 36 33 30 27 28 25
60 65 68 71 74 75 76 78 80 84 87 87 87 93 97 97 97 97 97 96 97 92 86 81 78 76 73 71 69 65 61 59 54 50 48 45 41 36 33 29 26 25 25 25
73 72 73 77 82 82 80 85 91 94 96 95 96 98 98 97 94 95 96 97 92 88 85 82 78 76 74 72 70 66 62 56 53 51 47 42 38 36 32 28 25 24 25 28
87 87 94 93 93 98 93 93 93 95 97 98 98 96 93 93 96 97 97 95 90 84 83 82 80 77 76 73 70 65 60 57 55 52 48 44 40 36 31 29 26 26 29 32
99 93 95 94 95 97 99 98 98 96 95 93 96 97 97 97 97 97 95 90 89 89 85 81 79 78 76 73 69 65 61 59 57 55 53 48 41 35 32 30 29 30 34 36
98 98 99 94 93 96 95 92 93 95 98 97 97 97 97 97 96 95 95 93 89 84 82 81 80 79 77 75 72 69 67 64 59 55 52 46 40 37 34 32 32 35 36 37
97 97 97 97 97 96 96 96 97 97 97 97 97 97 97 97 96 95 91 87 85 85 84 83 84 82 80 77 75 73 71 67 62 55 50 47 43 38 35 35 37 39 38 35
97 97 97 97 97 97 96 96 97 97 97 97 96 93 92 92 91 89 88 89 91 93 92 91 88 85 83 80 76 74 72 71 62 57 55 49 43 40 40 41 43 42 39 37
97 97 97 97 97 97 97 97 96 96 96 96 96 96 96 97 97 97 97 96 96 97 95 92 89 84 82 77 76 74 68 65 63 58 52 48 47 46 46 48 47 44 41 40
97 97 97 97 97 97 97 97 96 96 97 97 97 98 98 98 98 97 97 97 97 96 92 85 78 73 70 68 67 64 61 60 58 55 53 54 55 53 53 51 48 45 43 41
97 97 97 97 97 97 97 97 97 98 98 98 98 98 98 98 97 97 94 88 80 72 68 65 64 62 62 60 60 61 61 62 62 62 61 60 58 55 52 49 47 46 46 44

GFSNGP_prec_cthk_033.txt.gz
RH
38 39 41 40 40 43 49 50 55 49 48 42 41 46 40 42 46 35 26 31 35 43 43 42 42 46 49 46 46 48 55 61 65 66 61 55 51 44 42 42 46 53 64 68
41 38 40 40 41 41 43 44 44 47 45 41 41 45 40 36 28 31 27 28 37 43 44 47 50 52 52 54 57 63 60 57 54 53 50 44 40 41 42 47 51 56 60 65
47 40 40 44 38 44 41 39 41 42 37 40 38 46 41 35 29 29 32 31 37 39 43 48 50 55 57 59 59 56 55 52 48 45 42 40 38 40 46 48 52 57 62 65
54 57 63 37 37 38 38 37 36 34 32 36 46 45 36 29 32 35 32 31 35 42 45 49 50 57 58 54 52 51 49 46 44 40 36 35 40 45 49 53 57 61 64 66
62 57 42 34 39 41 38 37 38 36 40 45 47 37 30 29 30 38 37 36 36 36 40 42 46 46 44 48 49 47 43 38 36 34 38 43 47 51 55 58 60 62 61 61
61 62 57 36 41 41 37 38 40 41 46 38 34 31 24 31 37 43 43 36 35 37 38 36 37 41 46 46 43 38 37 34 37 41 45 48 50 53 55 55 54 54 57 58
67 62 46 38 45 51 47 31 50 46 38 34 28 24 31 36 39 38 39 42 41 40 39 41 44 46 44 41 38 35 36 40 43 45 48 51 52 52 52 51 48 48 47 49
66 69 63 42 45 41 30 39 46 40 33 28 27 26 30 34 36 37 38 40 42 43 43 45 44 42 40 37 37 41 44 46 48 49 51 52 52 49 46 47 47 47 48 48
59 54 48 46 43 44 38 43 48 40 35 31 28 26 32 34 36 38 41 43 44 43 42 42 41 39 38 40 44 47 49 51 52 52 53 52 49 47 47 46 46 47 45 43
71 59 55 52 48 53 49 44 45 43 40 34 30 27 32 34 36 37 40 40 39 41 42 41 40 40 43 46 48 51 53 54 54 54 52 49 48 45 44 47 43 42 42 41
55 59 63 59 54 54 56 52 45 41 38 35 29 27 30 33 35 38 39 38 39 39 40 40 42 45 48 50 51 54 57 57 54 52 52 51 48 46 45 43 38 36 34 31
50 46 58 63 66 65 57 53 48 42 39 35 27 29 32 34 35 37 37 39 40 42 42 44 47 51 55 57 60 61 59 55 52 53 53 51 52 53 49 44 40 36 34 33
42 54 63 68 64 61 56 57 53 44 40 33 29 31 34 35 36 38 41 43 46 47 50 53 57 61 64 68 68 63 57 52 54 54 55 55 55 54 52 50 44 42 40 37
44 43 53 67 69 64 61 60 58 55 46 38 36 36 39 41 42 44 46 48 52 54 59 64 68 73 76 73 64 60 58 60 61 61 61 59 58 53 54 54 52 51 49 47
55 51 55 60 63 67 66 65 62 60 57 51 45 46 47 50 51 54 56 57 61 68 72 76 80 80 75 70 64 64 68 64 61 63 62 58 54 53 55 57 57 55 52 48
53 43 41 60 67 69 70 70 68 67 68 68 63 61 64 66 67 67 69 72 77 77 82 85 83 83 77 78 77 73 71 71 69 66 64 62 61 59 61 61 58 54 51 47
53 50 46 48 58 63 72 77 73 74 77 79 79 79 77 78 79 79 81 85 88 87 90 90 89 89 83 83 84 83 80 73 70 69 67 64 61 60 59 58 57 54 50 45
61 60 57 60 66 69 74 78 78 76 80 85 85 82 84 87 91 93 94 96 97 97 97 97 96 92 88 86 81 78 75 74 72 70 68 65 61 58 58 61 59 56 52 48
60 60 65 65 64 65 70 74 78 82 87 85 87 93 93 98 98 97 97 97 97 97 96 95 92 88 84 82 80 79 78 77 75 72 67 64 65 67 67 66 62 57 52 45
73 70 69 76 80 80 79 85 91 96 97 98 98 98 98 98 97 96 97 97 96 96 96 91 88 89 88 84 83 82 79 77 75 73 72 69 73 72 71 67 61 54 49 46
87 88 88 90 93 90 93 95 98 98 97 97 97 97 98 96 97 97 97 97 96 96 95 96 91 88 85 82 80 79 79 78 79 78 80 79 77 73 68 63 58 54 51 44
96 97 97 97 97 97 97 97 97 97 97 97 96 97 97 96 97 97 97 97 96 96 94 90 86 85 84 85 86 85 85 87 87 84 80 77 72 67 64 61 59 55 48 44
97 97 96 96 97 97 97 97 96 97 97 97 97 97 96 97 97 97 96 96 93 91 92 91 92 93 90 89 89 90 89 88 86 80 71 68 66 63 60 58 55 52 50 51
97 96 95 96 97 97 97 97 97 97 97 97 97 97 96 97 97 96 97 97 96 97 97 96 95 92 91 92 94 90 84 75 68 66 64 63 61 59 58 56 56 58 58 58
97 97 97 97 96 97 96 96 96 96 97 97 97 97 97 97 97 97 96 96 95 95 94 95 90 85 79 76 68 63 60 59 59 57 56 54 54 54 55 56 56 55 55 54
97 97 98 97 97 97 97 97 97 97 97 96 96 95 95 95 95 95 94 92 89 82 74 67 60 54 52 51 50 48 47 45 44 45 45 46 47 47 47 49 50 50 50 51
98 98 98 98 97 97 97 96 96 96 95 95 94 93 90 85 78 70 63 57 53 47 43 41 40 38 37 37 38 39 40 40 42 42 44 46 48 49 49 50 52 53 52 53

GFSNGP_prec_cthk_036.txt.gz
RH
49 48 47 48 46 40 44 64 66 51 59 48 48 42 52 54 46 49 42 38 32 37 41 36 33 34 37 38 42 53 59 59 51 53 58 67 67 64 57 53 47 46 45 49
57 54 45 45 48 45 41 31 46 48 48 40 47 47 44 44 44 39 40 40 34 33 43 44 44 42 39 39 45 50 52 54 63 66 65 59 55 52 44 43 41 42 47 51
63 54 50 45 40 43 40 46 45 42 44 42 45 42 42 41 38 37 38 31 29 33 39 45 46 45 47 47 50 55 60 66 64 60 56 53 50 46 43 40 41 45 48 52
73 67 59 43 39 38 41 42 42 40 39 41 39 38 40 46 53 41 34 31 33 41 36 39 42 44 50 53 54 56 63 57 54 54 53 48 42 38 37 42 46 49 53 55
69 61 46 42 39 38 43 36 36 38 41 40 38 34 41 44 42 39 36 34 33 39 44 41 41 44 46 50 51 49 49 47 48 48 44 38 36 38 42 45 49 53 54 52
70 64 65 49 42 39 40 50 42 47 46 43 42 52 46 41 35 27 26 32 37 43 45 41 39 39 41 42 43 40 41 47 46 40 37 37 41 43 46 48 49 51 52 51
78 73 58 48 39 48 57 40 42 51 45 44 52 50 40 34 26 24 29 37 39 39 40 44 42 40 40 38 39 45 46 41 38 35 38 41 43 44 47 48 49 48 44 45
82 79 72 47 45 48 49 45 52 41 57 50 44 39 33 27 25 28 33 37 38 38 39 40 40 40 40 43 44 42 39 37 37 40 42 44 45 46 49 51 50 49 50 51
86 69 60 49 53 52 50 50 46 54 50 46 42 37 33 30 27 31 36 38 39 40 41 43 44 43 43 42 41 39 38 40 42 45 47 48 51 52 54 54 53 53 52 51
81 72 79 58 61 52 55 55 53 55 56 50 48 41 38 34 27 30 36 40 42 44 44 44 44 43 43 43 42 41 42 44 46 48 49 50 54 54 53 52 51 51 52 51
68 66 66 63 67 65 63 60 61 57 54 46 45 42 43 38 28 32 37 40 43 46 47 47 45 45 46 45 44 45 47 50 52 52 54 56 55 51 51 50 52 52 50 47
60 55 59 63 71 67 61 62 62 61 55 54 51 46 43 37 31 34 38 41 45 49 50 49 48 48 49 49 49 51 54 57 59 60 63 60 55 53 54 56 57 55 51 48
53 55 62 50 58 61 60 66 71 63 60 59 56 50 41 37 35 39 40 42 46 47 49 49 51 52 53 53 56 60 68 68 69 67 64 60 59 63 66 65 64 56 53 52
50 48 50 55 48 59 63 67 74 69 63 63 61 58 52 47 42 44 45 47 49 50 50 51 52 56 61 64 73 75 72 75 74 70 69 67 67 67 66 66 65 65 65 63
54 54 62 63 62 52 57 64 65 68 68 73 67 64 64 61 55 52 53 55 57 56 56 56 60 67 74 78 77 74 78 77 74 71 67 71 73 71 69 69 68 67 66 65
52 58 62 63 57 56 63 63 71 72 78 76 72 71 73 74 72 73 71 69 67 68 69 73 79 80 82 80 82 82 82 82 85 86 83 78 77 73 71 71 71 71 69 68
73 68 60 58 64 57 54 64 70 72 77 80 76 75 76 78 80 84 85 83 83 83 86 88 84 84 89 95 96 97 97 94 86 82 80 78 77 77 76 73 72 70 69 70
66 58 61 58 61 58 56 53 55 65 72 77 87 89 90 86 88 95 95 93 94 94 93 96 97 97 97 97 97 94 88 86 84 85 85 83 78 77 73 71 73 76 76 75
65 64 59 58 71 70 67 69 68 72 79 83 86 86 89 91 98 98 97 97 97 97 97 97 97 97 96 94 90 90 89 89 87 85 82 80 78 79 80 81 82 78 76 72
74 69 62 60 65 69 67 70 77 78 81 81 81 88 92 96 97 97 97 96 97 97 97 97 95 97 97 97 93 89 87 86 86 84 84 83 82 85 84 83 78 74 70 65
91 88 86 84 84 85 85 84 84 88 93 93 92 96 97 97 97 97 96 96 96 96 96 96 97 97 92 88 89 89 90 90 90 90 89 88 88 85 79 74 70 65 62 61
97 97 97 98 98 97 98 97 97 97 96 97 96 96 97 97 97 96 96 96 97 97 97 97 97 96 96 96 94 93 93 94 93 90 88 84 78 73 68 62 60 61 60 57
95 96 97 97 97 97 96 96 97 96 96 96 96 97 96 96 97 97 96 97 97 97 97 97 97 97 95 93 93 91 90 85 79 72 67 64 60 56 54 53 51 48 47 47
97 96 96 97 96 96 96 97 97 97 96 97 96 96 97 97 97 97 97 97 97 97 97 95 94 91 85 78 75 68 60 56 53 48 45 43 42 41 41 41 41 43 45 46
97 97 96 97 96 97 97 97 97 96 96 97 97 97 97 97 97 97 96 95 95 91 86 77 66 58 53 50 46 42 37 35 34 33 34 36 37 39 41 43 45 46 47 48
97 96 96 96 97 97 97 97 97 97 97 97 96 95 94 92 88 83 75 67 59 53 48 45 40 34 31 30 30 30 30 32 34 36 37 39 40 42 45 47 48 49 50 51
96 97 97 97 97 97 96 95 94 91 88 84 77 69 61 57 52 46 42 39 34 33 31 30 31 31 31 30 31 31 33 35 38 40 42 43 45 47 49 50 52 53 55 55

GFSNGP_prec_cthk_039.txt.gz
RH
43 46 48 55 54 50 47 44 46 46 53 48 48 51 55 52 49 49 49 47 42 38 35 30 26 24 25 28 34 44 45 42 43 49 55 54 59 62 63 71 67 58 48 46
57 48 44 52 54 52 51 46 48 46 47 46 47 44 49 50 44 47 44 40 39 42 37 39 31 27 28 30 29 32 34 36 41 44 48 54 60 67 63 59 52 46 42 43
61 59 54 58 48 51 50 47 47 48 38 38 44 52 50 50 47 44 43 44 42 44 39 30 28 29 32 37 35 33 33 37 41 46 55 59 55 52 51 49 45 40 39 44
71 68 77 42 44 48 46 48 45 43 42 42 45 44 48 45 49 46 38 36 42 42 35 34 33 37 40 39 40 43 43 44 51 54 57 51 45 46 46 41 38 37 41 45
81 69 65 55 47 45 45 44 42 38 38 40 40 43 44 42 40 43 42 45 45 41 40 35 34 40 45 49 46 46 49 55 51 47 44 43 42 42 39 37 37 41 43 44
96 80 72 53 53 45 42 43 38 40 38 41 42 46 45 46 38 37 38 41 41 36 29 35 41 46 47 47 46 48 48 48 47 45 42 42 41 37 35 38 41 43 44 44
97 95 66 54 52 47 51 45 39 38 39 39 44 43 45 43 46 47 48 44 36 28 31 39 40 41 45 47 46 44 42 40 39 39 44 42 38 37 39 42 43 44 46 49
99 90 81 66 58 50 43 43 47 48 43 43 47 50 51 44 51 48 44 36 29 31 34 38 39 40 43 44 43 43 42 43 46 46 42 39 38 41 42 44 45 45 47 51
75 91 76 69 75 63 60 57 58 56 47 51 53 54 50 51 45 42 37 31 31 33 36 39 40 40 41 43 46 48 49 50 49 47 41 40 41 44 46 48 49 51 55 56
60 69 76 74 70 68 67 68 66 69 56 58 55 52 52 52 46 42 39 36 34 35 38 40 43 44 46 47 47 49 49 49 47 45 45 46 49 50 52 55 58 62 63 57
57 62 80 70 67 75 68 70 62 63 65 57 54 52 48 47 45 46 46 43 40 39 42 43 45 48 48 49 48 48 48 48 49 48 50 53 56 59 64 65 66 63 62 62
56 54 69 67 64 76 75 73 72 72 70 66 58 54 51 53 51 49 46 44 42 43 46 48 50 51 52 53 52 49 50 53 55 56 55 59 67 70 69 67 64 61 60 60
52 56 57 53 60 70 71 76 76 73 74 70 62 60 61 62 62 59 53 44 45 46 50 52 53 54 55 55 56 58 61 63 61 61 64 66 71 71 70 70 70 65 70 68
48 52 50 53 55 60 60 57 64 66 64 57 64 70 67 68 66 62 60 58 57 54 55 57 59 60 61 62 62 64 67 71 75 75 72 76 78 76 74 75 81 79 77 74
52 56 53 49 55 58 56 62 57 58 63 60 64 69 71 74 74 71 68 67 70 71 67 65 66 70 72 73 77 81 82 81 77 79 84 80 80 84 86 85 83 80 81 81
51 51 55 57 54 56 63 70 65 61 64 65 69 71 73 79 81 82 80 77 79 82 84 86 88 90 92 92 90 87 81 81 86 91 94 97 96 91 86 85 86 85 87 85
77 72 66 63 62 62 68 64 61 63 67 74 78 79 83 86 88 91 90 87 88 90 90 93 95 94 93 88 85 91 96 97 97 97 96 94 93 94 92 89 88 84 83 80
93 89 86 87 81 76 72 68 70 73 71 71 77 81 83 86 90 91 93 97 97 97 97 96 96 96 97 97 97 97 96 96 96 96 97 97 96 90 89 89 85 83 85 88
75 80 81 77 80 80 79 76 81 81 79 81 84 79 77 86 91 96 96 97 95 89 92 95 96 97 97 97 97 97 97 97 97 97 96 94 92 90 89 89 89 89 88 85
71 76 82 85 81 77 75 72 66 67 77 79 78 85 87 87 88 88 89 89 86 96 97 96 96 97 97 97 97 97 97 97 96 96 95 94 93 93 91 88 85 83 80 74
95 95 95 95 93 87 80 77 75 77 86 87 86 83 82 85 93 93 96 97 95 96 96 96 96 97 97 97 97 97 97 98 97 96 95 93 90 85 81 76 72 68 63 57
97 96 97 97 96 96 97 96 97 97 97 97 97 96 96 97 97 96 96 97 97 96 97 97 97 97 97 97 97 97 95 94 91 86 79 73 66 60 56 53 47 43 41 39
97 97 97 97 97 97 97 96 96 96 96 96 96 97 96 96 96 96 96 97 97 97 97 97 97 97 94 92 87 81 73 65 59 54 48 43 38 35 35 36 36 37 38 39
97 97 96 96 95 94 94 95 96 96 96 96 96 96 96 96 97 97 97 97 97 97 95 91 83 73 62 55 50 44 39 35 32 30 29 30 31 33 35 38 39 40 41 43
95 94 93 93 93 92 93 94 95 95 95 96 96 96 97 96 94 93 88 81 72 62 53 46 40 35 30 29 27 26 26 27 27 28 30 32 34 37 39 41 43 45 46 48
96 96 95 95 95 94 94 94 94 94 92 89 84 76 68 60 52 47 43 40 37 34 32 30 28 26 24 24 24 25 27 29 31 33 34 37 39 41 42 44 46 48 51 53
80 79 78 76 73 69 65 60 55 52 47 42 39 37 35 34 32 31 30 28 27 27 27 25 25 25 26 27 29 30 32 34 35 37 39 41 43 44 46 49 52 53 55 57

GFSNGP_prec_cthk_042.txt.gz
RH
70 61 56 52 53 52 49 49 55 47 46 39 42 44 42 43 46 46 45 43 42 41 39 39 33 31 30 30 26 28 32 35 44 56 50 55 57 60 58 66 70 73 79 72
71 64 59 54 51 52 51 52 52 51 47 41 39 47 51 53 44 45 46 47 44 43 39 37 36 35 28 22 24 30 33 41 50 51 52 54 56 60 67 71 70 69 67 59
81 79 72 68 40 47 53 55 52 56 49 39 39 39 47 51 48 44 47 48 43 40 35 36 36 39 32 28 28 34 42 45 48 50 53 57 59 62 66 67 62 53 49 49
91 84 96 45 49 44 48 51 54 55 51 45 44 35 36 44 44 48 46 44 44 43 38 45 44 42 34 33 35 38 49 54 54 54 56 57 65 66 59 51 49 48 49 46
83 94 83 56 50 48 51 46 47 48 50 49 44 44 37 34 37 39 39 39 37 42 42 44 40 39 38 32 40 46 51 56 58 58 63 66 64 56 51 51 50 50 46 42
84 91 96 75 57 54 57 54 44 47 52 54 48 45 40 43 42 38 40 42 38 37 44 44 41 41 36 35 44 48 48 50 55 58 59 54 50 48 47 45 48 43 40 43
87 90 79 83 74 59 68 56 61 56 53 49 47 44 40 39 40 42 41 42 43 44 46 46 46 43 36 41 45 45 46 47 49 48 45 44 43 42 43 46 43 39 41 44
88 90 86 80 79 74 74 67 70 64 56 50 51 48 43 40 38 44 46 46 44 45 46 49 40 37 39 41 41 41 44 45 42 40 40 41 42 46 47 42 38 40 44 47
76 66 55 63 82 78 77 73 72 68 57 51 54 53 50 46 50 54 53 51 45 49 52 44 37 35 38 39 40 42 43 42 42 42 44 48 50 49 46 44 44 45 47 48
72 59 58 57 65 80 75 73 68 62 56 51 60 58 59 50 51 53 57 56 50 50 50 44 41 40 42 42 44 44 45 47 49 51 53 53 52 51 49 48 48 48 50 51
71 56 52 52 56 77 71 67 70 68 63 60 66 66 67 65 60 55 53 55 52 49 47 46 45 45 46 46 46 49 51 54 56 57 54 54 57 59 60 60 61 63 64 67
75 52 49 47 51 62 67 64 71 69 67 66 70 74 70 69 69 64 60 57 53 52 48 48 46 47 48 50 52 53 55 57 58 60 61 62 64 66 69 71 72 73 72 68
70 56 55 56 59 61 63 65 64 70 71 72 79 79 77 76 74 71 67 64 63 61 58 57 55 53 55 57 60 60 62 62 64 66 68 70 71 71 70 69 69 70 68 68
77 57 60 58 61 65 59 62 62 65 73 77 77 77 76 75 85 80 73 73 73 71 71 70 69 71 72 72 72 71 71 72 74 78 80 81 80 78 75 77 82 83 87 92
75 69 65 56 58 63 56 57 60 60 64 69 73 77 77 71 78 79 80 82 83 81 81 80 80 83 85 86 87 86 86 89 90 90 89 85 83 88 92 95 96 96 96 95
74 69 69 63 60 57 57 63 63 70 72 74 74 71 74 79 81 84 86 86 87 87 90 93 93 94 95 96 96 97 97 97 94 91 93 95 96 96 96 97 97 97 97 97
72 71 74 68 64 63 65 72 71 68 70 79 84 82 80 81 88 86 89 96 96 96 97 97 96 97 97 96 96 96 96 96 96 97 96 97 96 96 97 97 97 97 97 97
97 91 86 86 86 87 90 87 80 78 76 78 77 80 84 83 84 85 86 86 90 93 95 94 95 96 96 97 96 96 94 96 96 97 97 97 97 97 97 97 97 97 98 98
95 91 90 95 96 95 91 91 92 90 85 81 83 87 88 92 91 92 92 96 92 85 87 94 96 96 92 93 91 90 90 95 96 97 97 97 97 97 97 97 98 98 98 97
80 74 71 71 71 70 77 84 88 87 85 84 85 84 83 83 83 85 89 96 94 96 97 97 91 90 94 95 95 97 97 97 97 97 97 97 98 98 98 96 93 88 82 77
92 90 91 95 96 97 97 97 97 97 94 88 83 80 78 78 87 97 97 96 95 94 94 95 96 96 96 96 96 97 97 97 97 97 96 94 91 86 76 67 62 56 53 48
97 97 96 96 97 97 97 97 97 97 97 96 96 97 97 96 97 97 97 96 97 97 96 96 96 96 96 97 97 96 93 89 82 73 63 56 51 46 43 40 37 34 33 34
96 97 97 97 97 97 97 97 97 97 96 96 96 96 96 97 97 97 96 97 96 96 96 96 96 93 89 80 69 58 51 45 40 37 37 35 32 30 29 29 30 31 33 34
97 97 97 97 96 95 95 95 95 96 96 96 96 96 96 96 96 96 96 95 92 86 76 64 53 46 41 37 34 32 31 30 27 25 24 25 27 28 29 30 31 34 36 38
97 97 96 95 94 94 93 93 91 90 88 87 85 82 77 70 60 53 45 40 35 32 29 28 26 25 23 21 20 20 21 22 23 24 26 28 29 30 32 33 35 37 40 41
88 87 85 83 81 78 75 70 64 58 50 43 38 34 31 29 27 26 25 24 23 23 23 22 22 22 22 22 23 24 25 26 26 27 29 31 32 34 35 37 39 41 43 45
72 68 63 59 55 52 48 44 38 34 31 28 26 26 26 26 25 24 24 23 23 23 22 22 23 24 24 24 24 25 26 28 29 31 32 34 35 36 38 39 40 43 46 50

GFSNGP_prec_cthk_045.txt.gz
RH
72 71 68 66 64 59 52 50 53 49 50 44 39 38 32 35 40 38 39 37 36 38 39 39 38 37 34 33 33 33 32 33 33 38 46 56 70 66 68 65 72 75 77 78
74 65 66 65 60 59 59 57 56 55 52 48 45 43 39 38 38 39 40 42 39 40 44 42 40 42 41 40 37 34 31 28 36 40 50 59 67 64 64 68 71 74 73 82
79 75 69 57 63 66 62 56 56 57 57 54 50 50 47 43 39 42 43 48 49 45 43 44 38 41 40 44 43 39 33 29 35 46 52 57 60 61 61 62 71 72 75 76
69 65 69 37 48 59 65 58 56 54 55 59 55 49 44 39 39 37 42 47 50 46 44 43 44 45 41 44 42 40 39 35 34 44 51 58 61 61 60 65 71 68 72 62
63 66 49 40 38 49 84 66 62 55 52 52 55 51 44 41 40 38 35 40 45 46 43 43 44 45 45 42 41 41 39 34 38 46 56 58 60 62 64 64 70 70 60 57
65 66 58 25 29 47 68 66 61 62 55 49 49 52 43 43 42 43 41 38 39 40 40 42 40 41 44 44 41 44 42 40 47 53 56 59 64 67 73 72 64 59 60 59
66 74 53 37 37 53 80 74 72 67 65 57 46 40 39 50 46 43 42 43 44 43 43 44 47 48 46 43 47 48 46 49 52 56 59 62 67 65 61 59 59 58 58 56
69 75 65 46 54 63 73 84 76 78 66 59 52 45 43 45 51 47 44 42 43 44 42 49 54 52 50 51 54 51 53 52 53 55 60 64 59 56 55 55 55 57 58 60
58 55 60 65 59 65 68 75 81 79 72 60 56 55 55 52 53 50 46 45 43 47 49 50 56 57 55 60 58 54 52 53 54 54 56 53 52 52 52 55 58 61 62 62
51 39 55 58 67 62 62 69 82 78 76 70 66 63 60 52 58 57 54 53 53 56 60 61 60 62 65 65 60 54 53 56 60 57 54 55 57 59 61 64 65 66 66 64
50 39 61 62 68 59 61 70 82 76 76 76 70 66 61 58 59 62 60 63 65 67 65 67 65 62 61 60 58 57 58 59 62 63 64 65 67 69 70 71 72 71 70 69
63 64 79 72 70 67 62 69 75 79 74 74 72 70 66 70 66 69 70 76 75 75 71 70 69 65 62 59 60 61 61 63 66 69 70 71 72 73 75 78 78 78 78 78
66 62 75 78 78 70 70 75 79 78 72 68 76 72 71 73 74 75 78 79 81 80 79 80 78 74 73 73 71 72 72 73 73 73 75 75 77 77 79 81 82 84 85 82
75 70 77 83 80 71 66 71 70 65 62 63 63 74 73 74 74 74 83 87 88 87 88 87 85 85 85 84 84 84 84 85 86 87 87 87 87 88 89 89 88 85 85 89
79 80 87 90 84 73 69 61 60 57 62 66 70 68 70 73 78 79 88 87 87 90 94 96 95 96 96 96 92 91 91 92 92 93 95 96 96 96 93 94 96 97 97 97
83 86 95 91 80 76 69 64 62 61 58 63 69 78 76 73 75 87 95 89 86 91 96 97 97 98 96 97 98 98 97 96 97 97 97 96 96 97 96 96 97 97 97 97
88 96 92 88 84 79 74 70 68 65 61 65 65 68 71 81 87 92 96 95 98 98 98 96 97 95 92 93 96 96 96 96 96 96 96 96 96 96 96 97 96 95 95 96
94 97 94 91 85 83 85 87 84 87 86 89 84 80 77 78 84 89 90 88 86 89 92 92 94 96 97 96 95 94 94 96 96 96 96 95 95 97 96 97 97 98 98 98
98 98 97 95 95 96 97 95 94 93 97 93 90 88 90 90 90 88 90 93 95 96 96 95 94 95 96 96 96 96 96 96 96 96 94 95 97 97 97 97 97 98 98 98
97 94 91 93 92 92 95 92 90 83 82 82 87 92 93 92 91 89 86 86 85 86 93 84 88 96 96 96 96 96 96 97 97 97 97 97 97 97 97 96 93 87 77 67
94 94 92 91 85 80 77 77 82 91 97 97 97 97 97 97 97 96 93 90 90 89 90 94 96 96 96 97 97 97 97 96 96 93 90 86 79 70 60 52 49 46 42 38
87 90 95 94 96 96 97 96 97 97 97 97 96 97 97 97 97 97 97 96 96 96 96 96 96 96 94 91 87 84 79 72 61 52 45 41 38 35 31 28 25 24 24 25
96 96 96 96 96 97 97 97 97 97 97 96 96 97 96 97 97 96 96 96 96 95 92 88 83 74 62 48 37 29 24 20 18 18 19 20 20 21 22 23 24 25 27 30
97 97 97 98 98 97 96 96 94 93 93 93 93 92 90 88 84 80 73 63 51 37 27 22 20 18 17 15 15 15 15 16 18 19 20 21 22 24 24 25 27 28 29 31
96 95 93 91 88 87 84 80 77 74 70 64 59 52 44 36 30 28 26 24 23 21 20 20 18 18 17 16 17 17 18 19 20 21 22 24 25 26 27 28 29 30 33 35
79 76 73 69 66 62 57 52 45 41 35 30 28 26 25 24 24 23 23 22 21 20 19 18 18 17 17 18 18 19 21 22 23 24 25 26 27 28 29 30 31 33 34 35
65 60 56 51 46 41 36 32 27 26 26 24 22 24 24 23 22 22 22 22 22 21 21 20 20 19 19 20 21 22 23 24 25 26 27 28 29 31 32 33 35 36 37 39

GFSNGP_prec_cthk_048.txt.gz
RH
66 66 59 54 58 60 62 64 65 55 52 51 45 45 46 45 41 38 34 39 39 40 36 36 39 40 40 39 38 33 35 35 32 30 32 36 41 49 58 72 76 77 75 82
73 66 65 52 54 56 58 61 58 54 49 50 47 44 47 45 45 43 39 38 38 37 35 35 41 44 45 41 40 40 37 37 35 34 34 33 40 50 57 65 69 72 73 71
69 69 70 63 48 52 51 50 51 56 54 52 49 46 49 48 48 48 46 46 44 44 40 41 39 41 48 44 43 40 40 35 36 37 37 35 39 50 58 62 69 73 72 73
76 68 76 41 43 46 48 43 46 46 44 54 52 49 43 49 48 48 47 44 41 41 47 46 46 45 47 48 48 45 45 42 40 39 38 36 40 50 59 68 74 78 75 74
71 71 48 31 25 29 37 29 38 40 45 57 56 50 38 43 51 49 48 42 39 41 49 51 51 48 47 47 47 46 49 53 48 43 41 40 46 52 61 70 71 75 77 77
68 72 59 24 26 33 39 40 45 48 55 62 65 55 40 44 45 49 50 44 41 42 43 45 49 48 43 45 50 54 55 55 55 50 45 48 51 55 57 61 63 67 72 78
72 72 48 33 35 45 50 51 50 55 54 60 66 63 57 52 42 44 50 53 48 44 45 44 46 46 46 44 48 55 62 60 59 59 53 51 49 57 58 59 64 68 73 75
73 77 59 37 48 56 61 54 52 55 61 64 69 61 58 55 46 42 41 46 49 48 46 45 46 47 49 49 53 62 65 65 67 67 58 54 51 55 62 68 70 70 66 62
63 52 43 42 42 46 64 63 59 63 63 65 75 72 65 60 58 50 46 46 46 49 52 50 51 55 58 59 64 66 70 71 72 74 64 62 62 63 69 68 65 62 59 60
64 48 49 39 33 48 49 61 64 69 65 79 84 83 77 70 63 61 56 56 55 53 55 59 61 66 70 66 72 74 79 78 76 67 64 65 68 70 68 64 64 65 65 67
56 50 48 42 47 41 47 66 74 73 75 83 90 87 83 81 73 67 63 63 65 66 64 65 68 68 72 77 79 77 74 69 67 67 67 67 67 66 67 69 71 73 75 77
62 67 65 62 62 60 64 69 81 82 83 82 93 88 84 84 80 76 72 71 70 71 72 73 77 75 77 77 77 76 72 71 72 74 74 76 75 76 80 83 84 85 87 89
68 66 65 62 60 63 71 75 84 92 88 82 88 85 79 83 85 81 80 78 80 83 85 85 86 89 86 85 83 85 82 81 84 84 85 86 88 91 93 94 94 93 93 93
90 82 80 80 75 71 75 82 89 88 82 80 79 86 82 80 84 86 84 86 88 90 88 90 89 96 96 92 93 93 92 93 92 94 95 96 96 97 97 96 96 96 96 96
99 98 92 84 78 74 83 85 90 87 79 74 74 77 82 84 81 80 83 91 95 94 94 93 92 98 98 99 99 99 98 98 97 97 97 97 96 96 96 96 97 96 96 96
93 89 83 80 80 83 91 90 91 88 81 72 71 70 70 74 83 90 87 90 91 97 97 94 95 97 97 98 98 98 97 97 97 96 95 96 95 96 96 96 95 95 96 96
89 85 81 83 87 89 91 94 92 89 83 74 78 76 74 76 77 78 80 84 91 89 90 89 92 97 96 96 94 95 96 97 96 97 96 96 96 96 96 96 97 96 96 96
91 97 98 91 89 92 91 92 88 86 86 85 92 97 93 93 88 84 84 84 83 83 92 97 97 91 91 96 96 96 96 97 96 96 96 96 97 97 97 97 96 96 98 98
94 94 95 95 94 95 95 92 87 89 93 91 95 97 97 97 90 86 87 88 90 91 91 93 93 95 96 96 95 95 96 96 89 90 96 97 97 97 98 98 98 98 97 94
97 97 96 97 95 94 95 94 93 94 95 95 97 98 96 89 86 94 95 96 96 97 96 94 93 90 90 89 88 88 89 90 94 97 97 96 94 90 82 73 64 55 47 39
96 96 96 96 96 96 96 96 95 96 95 93 91 88 85 93 96 97 97 96 97 97 97 97 96 96 96 96 94 92 89 85 79 71 62 54 46 39 31 24 21 20 20 21
97 96 96 96 96 95 96 95 94 93 92 89 95 98 97 96 96 97 97 96 97 96 96 93 89 84 77 70 62 55 46 38 29 21 16 15 16 16 17 18 19 19 20 22
97 97 97 97 97 97 97 97 97 96 96 97 97 96 96 96 96 94 89 85 78 71 62 52 43 34 26 20 16 14 13 13 13 14 15 15 16 17 18 18 19 21 22 23
96 97 96 97 97 97 96 97 96 95 93 90 86 81 76 66 56 46 39 33 27 23 19 17 15 14 13 13 13 13 14 14 15 16 17 18 19 20 21 22 23 24 25 26
97 97 97 95 90 84 78 71 62 53 46 39 34 30 28 26 23 24 23 21 20 18 16 15 15 14 14 14 15 15 15 16 17 18 19 20 21 22 23 24 25 26 27 29
88 83 74 63 55 49 44 39 34 31 29 27 27 27 26 25 24 23 21 20 19 17 15 15 15 15 15 16 17 18 19 20 21 22 22 23 24 25 27 28 29 31 32 34
60 54 48 43 38 34 31 29 26 25 25 24 21 22 22 22 21 21 21 20 18 18 17 17 17 18 19 20 21 23 23 23 24 25 26 27 28 29 31 32 35 36 38 40

GFSNGP_prec_cthk_051.txt.gz
RH
63 59 58 55 51 50 52 51 53 49 50 51 51 46 45 44 45 46 41 38 33 35 39 43 44 42 44 44 43 39 36 36 35 35 37 37 35 36 38 41 43 51 63 77
65 61 58 54 51 51 52 51 51 51 49 44 43 48 44 45 46 47 48 43 39 37 40 43 44 43 41 44 45 45 42 39 39 37 40 39 37 37 38 39 41 49 56 72
62 64 57 52 49 47 42 39 40 42 38 40 38 39 42 43 46 48 49 49 46 42 38 37 41 42 44 46 50 49 45 43 40 41 41 41 40 41 39 41 45 49 57 65
74 68 60 34 37 39 40 34 28 29 34 37 34 37 38 41 44 47 49 50 49 49 46 43 41 43 44 48 48 51 49 45 46 47 42 43 45 42 40 44 49 55 62 66
77 74 47 38 33 30 29 29 35 39 42 44 44 45 43 47 44 43 49 49 52 52 49 46 38 39 47 53 51 51 50 49 50 49 50 46 44 44 43 45 51 57 61 64
77 59 52 31 35 34 33 32 35 39 41 41 43 47 48 51 54 46 45 49 51 52 47 47 44 49 47 49 48 48 46 48 52 58 60 55 53 58 54 48 50 53 56 60
73 67 48 37 39 47 45 39 40 42 39 40 45 52 56 55 55 55 46 43 47 50 50 48 47 48 46 48 49 48 49 52 54 60 66 66 68 68 66 58 56 55 59 63
70 70 61 40 53 55 45 41 41 45 48 47 46 48 58 67 64 58 50 45 44 47 47 51 50 50 50 48 50 52 55 61 66 73 74 73 76 76 77 71 62 63 64 67
61 51 42 49 55 51 47 41 41 42 46 50 53 55 59 74 71 70 61 56 53 50 48 51 50 50 52 54 58 60 62 67 75 81 80 81 82 79 75 73 67 72 74 76
56 47 46 47 53 56 52 45 41 41 48 52 61 64 70 86 81 76 76 72 67 64 61 58 58 59 62 63 67 72 75 75 80 82 82 84 84 80 76 75 76 78 82 84
54 52 52 56 60 58 61 57 53 52 59 67 78 83 90 93 90 91 88 86 79 79 75 70 71 71 72 75 76 77 79 79 78 85 87 86 82 80 79 80 87 89 86 83
57 63 62 60 63 65 62 56 51 57 66 66 74 91 96 92 97 96 96 94 86 83 83 83 83 83 81 83 85 87 85 84 87 91 86 83 84 82 84 86 89 92 92 93
66 67 68 67 68 64 66 61 63 60 63 71 80 87 96 91 95 97 97 96 95 92 92 87 89 90 92 96 95 92 88 90 93 91 89 89 91 90 91 93 96 97 97 98
66 67 72 68 71 74 72 76 70 68 70 75 81 85 91 96 90 99 98 96 94 96 90 94 98 99 96 98 98 97 97 98 98 98 99 98 98 98 98 98 97 96 96 96
67 73 78 78 84 89 92 88 80 77 80 82 90 89 90 88 88 92 99 97 97 92 94 97 98 99 98 98 98 99 98 98 98 97 97 97 97 97 97 97 97 96 96 96
73 79 86 88 92 91 89 88 78 78 86 92 98 95 91 83 92 88 87 84 91 91 96 93 95 97 97 97 98 98 97 97 97 96 95 95 97 96 96 96 96 96 96 96
84 82 85 85 88 86 86 83 83 91 91 92 95 93 92 88 86 89 84 80 91 97 96 89 97 96 97 98 94 97 97 97 96 96 95 96 96 95 96 96 95 94 93 91
86 86 85 86 86 90 94 92 93 95 93 92 92 92 92 93 92 96 97 98 93 85 85 90 88 87 89 97 97 96 96 94 93 94 95 95 94 94 94 94 93 91 87 89
91 91 90 88 90 95 96 96 94 95 93 93 92 91 91 91 93 95 95 97 96 94 89 91 91 90 90 90 89 91 93 92 91 90 89 89 89 89 89 88 83 77 67 55
96 97 96 95 96 96 95 96 97 94 92 94 94 93 93 94 93 94 94 95 95 93 89 93 97 97 96 95 96 96 94 93 90 86 79 69 59 52 47 44 40 36 30 23
96 97 97 97 97 97 97 97 97 97 98 97 95 93 95 96 96 97 96 95 92 92 95 96 94 89 83 76 69 62 57 52 48 44 41 38 35 30 24 20 17 17 17 17
96 97 97 97 97 97 97 97 97 97 97 97 97 98 96 95 96 96 95 94 91 83 74 65 58 52 48 45 42 39 36 31 27 23 19 17 15 15 15 16 16 17 17 18
97 97 97 97 97 97 97 97 97 98 98 97 97 95 91 84 77 69 62 59 53 48 44 39 35 30 26 23 21 19 16 14 13 13 14 15 16 16 17 18 18 19 20 21
97 97 97 97 98 98 97 96 93 88 81 73 64 57 50 44 41 38 37 35 30 25 20 17 15 14 13 13 13 14 14 15 15 16 17 17 18 19 19 20 21 22 23 24
98 98 97 95 88 80 70 62 55 49 44 38 34 30 26 25 22 23 21 19 17 15 14 14 14 14 14 14 15 15 16 17 18 19 20 21 22 22 23 24 25 26 27 29
93 84 74 64 55 46 39 34 29 27 26 24 24 24 23 21 21 20 18 17 16 15 15 15 15 16 16 17 18 19 20 22 23 24 25 25 25 26 26 28 29 30 32 33
56 49 44 38 33 30 28 26 23 21 21 21 19 21 21 21 21 19 18 17 17 17 17 18 19 20 21 22 23 24 25 25 26 27 27 28 28 29 30 31 32 35 37 38

GFSNGP_prec_cthk_054.txt.gz
RH
55 53 47 49 50 51 53 53 55 52 49 46 42 37 39 42 45 43 43 45 42 38 39 43 49 49 48 51 49 48 51 51 47 48 50 55 51 50 50 45 44 46 46 47
63 56 58 54 48 45 44 42 45 45 45 44 42 39 34 33 38 45 45 46 47 45 40 38 40 49 50 52 50 51 51 47 46 43 42 42 41 41 45 44 43 44 44 48
56 62 54 48 47 46 47 48 45 42 39 36 34 34 36 35 35 39 44 46 46 49 49 44 41 45 46 46 52 50 50 48 47 45 44 45 45 47 47 50 50 47 43 46
66 70 58 38 38 38 37 34 31 31 32 33 34 38 34 34 36 37 39 44 47 47 48 48 43 42 45 48 49 49 51 52 53 51 48 51 50 51 53 53 52 52 48 49
66 62 46 42 37 35 33 31 30 36 37 37 37 36 38 44 43 44 45 41 38 41 48 48 48 46 43 46 50 51 51 47 53 53 55 56 57 57 57 58 57 55 54 52
60 54 54 40 41 40 29 35 41 41 44 44 44 45 44 40 45 49 50 51 44 39 41 46 49 50 49 45 48 51 53 57 57 57 59 61 60 57 55 62 63 61 61 57
56 68 54 40 36 32 45 53 40 37 37 39 45 49 46 40 42 51 53 52 53 51 45 47 50 51 49 46 45 49 53 56 60 63 63 62 64 64 61 69 72 74 77 74
56 69 70 45 41 45 60 48 42 38 36 36 40 45 44 44 40 45 54 57 56 57 56 52 53 55 51 51 49 52 53 53 56 59 63 63 65 70 79 85 84 80 82 80
52 55 57 61 63 57 55 48 46 44 41 40 40 44 42 39 44 47 50 63 67 64 63 59 55 59 60 56 56 57 57 58 59 63 68 73 78 83 86 81 90 85 82 84
64 61 61 57 56 55 55 54 51 52 49 48 49 49 48 51 58 58 57 71 78 78 75 69 62 61 65 65 67 67 65 66 66 72 77 81 87 89 91 88 88 90 91 86
62 63 62 59 59 58 59 58 57 58 54 52 52 52 51 50 62 69 74 81 88 87 88 84 77 72 74 74 75 75 75 77 78 80 83 90 93 94 93 91 92 94 94 89
64 67 63 58 59 56 55 56 57 58 57 57 56 54 55 57 58 68 78 92 97 93 96 97 89 87 84 85 87 88 88 88 87 88 86 89 89 93 95 94 97 98 98 95
66 66 64 62 62 62 62 60 60 61 63 64 63 63 61 60 62 72 78 86 95 98 95 98 98 92 93 94 91 93 92 91 92 90 90 96 98 99 99 97 99 97 97 98
67 67 69 66 67 66 68 68 67 69 68 66 64 70 65 67 67 75 82 85 86 98 99 96 99 99 95 97 99 98 98 99 99 99 99 98 98 97 98 97 97 97 97 96
72 73 71 69 69 71 75 80 79 81 80 78 76 71 73 86 79 78 84 89 88 93 98 98 98 97 99 97 99 98 98 97 98 98 97 97 96 97 97 97 97 97 96 97
71 72 72 71 72 74 80 88 93 90 88 85 83 77 78 94 87 86 88 89 98 90 91 90 93 94 98 98 97 97 97 97 97 97 97 97 95 96 96 97 96 96 96 96
69 68 71 71 78 81 87 88 90 92 90 85 85 83 93 94 90 92 91 90 93 96 96 95 97 97 97 96 97 96 95 97 96 96 96 97 96 96 96 96 96 96 94 94
76 77 82 84 85 86 84 85 88 92 91 91 90 92 95 96 94 93 92 95 96 96 97 97 97 95 96 93 92 93 92 90 92 95 95 95 94 94 94 93 92 91 88 84
85 91 94 94 93 91 90 88 90 91 96 97 96 96 97 95 95 94 95 94 95 96 97 96 96 96 96 91 89 88 90 90 88 88 90 90 90 86 82 76 69 61 54 48
88 93 97 97 96 95 94 94 96 97 97 97 97 97 97 96 97 96 96 94 93 94 94 95 94 91 88 85 81 78 78 73 66 61 58 56 54 52 45 42 42 40 37 33
90 94 97 96 97 97 97 97 97 97 97 97 97 96 95 96 96 97 96 96 95 89 85 77 67 60 56 54 51 48 47 46 44 44 45 42 41 39 37 33 29 27 24 22
96 97 97 96 97 97 97 97 97 97 97 97 97 97 97 97 95 87 78 71 62 57 54 51 48 46 44 42 39 37 34 33 32 30 28 27 26 22 18 17 17 18 21 21
97 97 97 97 97 97 97 97 97 97 97 95 89 80 72 68 66 62 57 49 46 42 39 37 34 32 30 26 24 21 18 16 14 13 14 14 15 16 17 17 18 19 19 19
97 97 97 97 97 97 97 93 86 78 70 63 56 52 52 48 43 38 32 28 25 22 19 17 15 13 13 13 13 13 14 14 15 15 16 16 17 18 19 20 20 21 22 23
97 97 96 94 89 82 75 64 55 50 45 42 37 31 26 25 23 21 18 16 16 15 15 15 15 14 14 14 15 15 16 16 17 18 18 19 20 22 22 23 24 24 25 26
91 83 76 69 62 56 49 43 37 32 30 28 27 25 23 22 21 21 18 17 17 16 16 15 15 16 16 17 17 18 19 20 21 21 22 23 24 25 26 27 27 27 28 30
60 54 50 45 38 35 32 30 28 26 25 25 25 24 23 22 20 19 19 18 18 18 18 19 19 19 20 21 22 22 23 23 24 24 25 26 27 28 29 29 30 31 33 35

GFSNGP_prec_cthk_057.txt.gz
RH
60 63 61 62 64 56 57 60 65 60 62 54 53 49 43 43 39 41 41 50 50 49 50 49 50 52 51 51 53 49 50 50 45 46 50 56 55 55 54 56 55 53 53 50
74 60 58 58 56 52 51 49 48 48 52 48 47 51 41 31 30 30 35 42 53 54 51 50 47 46 53 53 54 56 54 51 53 55 55 54 55 54 58 59 57 56 50 50
86 67 58 54 50 51 47 49 49 53 53 46 45 37 33 31 35 34 34 38 41 49 53 53 54 52 49 52 55 54 54 53 57 57 54 52 51 52 54 54 55 52 53 55
83 77 89 58 51 50 53 50 50 45 40 39 40 40 35 35 43 40 40 37 34 39 47 53 54 54 52 49 51 53 54 54 55 57 56 55 55 53 56 53 51 55 58 59
67 64 56 51 49 42 43 41 38 38 45 44 44 38 40 54 42 37 39 40 40 36 36 38 45 51 51 53 49 53 55 57 55 55 58 58 54 54 56 57 56 61 65 65
75 71 67 57 55 47 39 42 52 51 51 46 43 45 51 49 42 41 38 39 36 38 40 42 43 44 45 46 51 50 54 55 57 58 57 57 57 62 61 61 60 60 61 64
59 62 46 43 50 37 45 59 62 54 49 48 46 45 46 44 42 39 36 32 35 35 39 46 48 52 50 51 51 53 55 57 59 63 64 63 66 68 64 62 63 64 66 70
61 73 63 60 56 47 64 73 68 56 49 45 45 43 46 45 40 40 36 35 34 36 38 40 48 52 51 55 55 53 57 59 59 61 64 63 64 67 77 79 76 77 77 80
56 58 62 61 63 69 68 69 62 51 46 46 43 41 45 48 46 41 39 39 41 41 44 45 49 56 60 60 61 65 68 67 63 62 66 71 75 77 79 80 82 83 88 91
77 61 80 62 66 67 59 55 52 48 46 44 45 43 41 43 43 43 43 43 45 43 49 55 54 59 63 66 67 68 71 73 71 70 72 76 76 78 82 84 89 95 94 96
76 75 72 67 70 64 60 54 51 47 47 48 48 48 47 48 47 47 48 48 51 51 53 60 66 67 69 73 72 74 75 77 80 79 80 84 85 89 92 92 93 98 99 98
76 78 74 78 74 67 57 50 49 48 48 49 50 51 52 54 54 54 50 50 54 53 57 70 82 87 83 87 83 80 78 80 81 85 91 93 87 89 94 96 97 99 98 99
81 86 81 72 64 57 57 56 56 55 53 55 57 58 59 60 60 59 55 59 59 58 59 75 91 97 93 95 98 93 95 92 88 83 97 99 95 97 98 96 98 99 98 98
73 69 68 67 67 68 66 62 60 63 64 66 68 66 67 64 61 59 60 67 67 65 68 84 91 96 97 96 95 98 98 99 98 97 98 96 96 98 97 98 97 97 97 97
78 77 75 73 71 70 69 66 66 67 70 75 75 76 75 73 72 71 69 77 80 76 79 84 93 95 97 96 98 96 97 98 98 98 97 97 97 97 97 96 97 94 97 96
78 76 74 72 70 68 66 68 72 72 72 79 82 85 84 83 84 82 81 90 89 84 86 89 94 97 97 92 97 98 97 98 96 97 99 95 97 97 96 96 96 96 95 96
74 70 71 70 67 67 68 70 73 75 79 83 84 87 89 89 85 88 87 94 92 91 92 95 97 97 96 96 96 96 96 97 97 96 97 97 96 97 97 97 96 95 95 96
76 78 77 77 75 76 80 82 83 83 84 85 85 88 92 95 95 92 94 97 97 97 96 96 97 97 96 96 96 96 96 96 96 96 96 96 97 96 93 93 91 91 90 87
78 79 82 83 84 88 93 94 92 90 88 90 90 96 96 96 97 97 97 97 97 96 97 97 94 95 95 94 95 95 95 94 92 91 91 89 87 81 76 70 66 60 55 51
80 81 83 84 85 91 96 97 96 96 96 96 97 96 97 97 97 97 97 97 97 95 89 88 85 80 74 68 66 66 65 62 58 56 54 52 50 48 46 43 42 41 40 38
84 84 85 88 91 94 96 96 97 97 97 97 97 97 97 97 97 97 97 92 84 74 67 61 57 58 54 57 55 53 52 50 48 46 44 42 41 40 38 37 34 32 29 26
88 89 91 94 96 96 96 96 96 97 97 97 97 97 97 94 85 73 65 68 60 53 50 47 44 42 40 42 43 41 39 37 35 34 32 31 30 28 26 24 22 22 22 23
93 96 96 97 96 96 96 96 97 97 96 90 81 72 65 63 60 59 53 44 41 36 33 29 26 24 24 31 30 29 27 24 22 22 21 22 22 22 22 21 23 24 24 24
97 97 97 97 97 97 94 88 82 75 68 63 56 53 50 45 40 37 34 25 20 17 14 14 13 14 20 22 22 21 22 23 23 23 23 24 24 24 24 24 25 25 26 27
97 98 97 94 88 82 75 69 62 55 48 41 36 31 27 26 25 23 23 20 15 22 18 14 14 15 18 20 19 24 24 18 17 24 25 25 25 26 26 27 25 23 23 26
93 86 79 72 64 56 48 43 41 39 35 30 27 26 25 25 25 25 24 20 20 22 24 20 16 23 25 22 24 20 26 26 25 25 24 27 27 29 28 25 25 26 27 27
63 53 46 39 35 34 33 33 36 32 28 29 27 27 26 26 26 26 26 26 26 26 26 25 25 20 20 21 28 27 28 29 24 23 24 26 26 27 26 27 28 30 31 32

GFSNGP_prec_cthk_060.txt.gz
RH
59 64 67 72 70 66 68 79 87 70 71 75 76 68 60 54 50 50 51 53 56 55 53 54 49 47 57 57 54 56 60 59 49 50 48 46 45 44 45 48 49 51 51 53
60 61 64 63 68 85 77 60 62 70 73 68 69 55 55 55 53 51 54 57 55 52 50 54 53 52 51 54 62 56 54 55 57 59 58 57 55 54 57 56 54 53 52 54
83 69 62 61 56 68 74 60 54 59 54 57 55 56 55 49 47 48 43 43 43 43 45 50 52 55 55 55 53 57 61 54 57 59 60 59 60 63 61 59 60 58 57 57
91 93 84 50 45 43 52 50 50 52 58 52 54 54 51 43 46 41 39 39 38 37 36 40 45 47 50 53 56 55 57 59 58 59 59 59 62 64 64 60 60 61 61 59
96 87 84 72 59 53 54 57 58 56 56 56 56 46 52 55 49 46 44 37 33 32 30 32 32 35 42 49 54 56 56 55 59 60 61 64 64 63 67 69 66 64 63 66
78 85 89 62 66 62 55 56 56 57 60 58 51 54 66 73 70 59 46 34 30 28 29 30 30 32 33 38 47 50 52 50 52 54 60 61 65 66 68 69 69 67 66 63
77 82 73 59 59 58 59 73 69 64 61 58 55 53 54 59 55 45 40 33 27 26 26 27 28 32 35 38 39 44 50 51 52 52 55 59 65 69 72 72 71 71 71 70
68 74 74 55 59 66 69 65 68 73 75 60 58 52 48 51 52 42 39 34 33 32 31 29 27 27 30 35 40 44 50 56 58 57 56 61 65 67 70 76 79 80 81 82
55 45 52 57 59 66 69 66 76 76 79 63 59 49 45 40 40 39 38 38 39 38 37 36 33 31 31 36 36 45 49 54 59 66 68 71 72 75 78 80 86 90 91 91
74 54 54 80 84 68 81 76 81 83 76 69 56 51 48 46 44 44 47 48 46 45 43 43 41 37 37 40 46 47 50 52 61 67 72 79 82 82 85 86 89 92 96 97
75 86 81 87 94 74 68 70 68 64 59 58 54 52 49 48 50 51 52 53 51 49 46 46 45 42 42 44 52 58 60 58 60 70 79 84 86 91 90 93 96 94 91 98
93 94 97 97 94 83 69 66 65 58 56 54 52 51 54 55 56 56 55 53 51 49 48 50 50 49 49 52 58 70 79 78 70 72 80 86 89 90 94 94 95 98 97 98
88 89 88 86 82 79 74 70 64 55 53 51 51 54 55 56 57 57 55 54 54 53 52 56 58 58 58 59 67 79 90 94 88 83 78 90 91 94 98 99 98 94 98 96
77 74 77 74 74 71 66 63 59 58 57 57 57 58 58 61 62 62 62 61 61 60 59 61 66 67 71 73 77 89 90 94 97 90 91 90 97 98 98 97 96 98 96 95
79 74 71 71 68 65 64 63 62 62 60 60 60 60 59 61 64 65 67 69 70 70 69 71 75 79 81 86 88 91 95 95 98 95 96 96 97 96 98 96 96 95 99 95
82 78 77 75 73 69 67 64 63 61 60 60 62 63 64 68 71 74 79 80 80 78 82 82 89 91 91 96 96 95 96 96 96 97 97 98 92 97 99 93 96 97 97 97
78 76 74 73 70 68 66 65 65 64 63 66 66 70 73 76 82 81 83 86 88 89 90 92 94 97 97 97 97 98 96 96 95 96 95 95 97 98 96 94 96 97 98 96
80 80 75 74 73 74 74 74 74 78 84 87 87 84 82 81 84 84 87 90 95 96 95 97 97 97 97 97 97 97 97 96 97 97 96 96 95 94 95 94 90 86 80 74
78 78 80 79 79 78 81 81 82 83 88 91 93 93 89 88 89 90 95 97 97 96 96 96 92 90 88 88 85 82 81 79 76 74 70 68 66 64 60 57 55 54 53 51
82 80 80 81 81 80 81 82 84 86 91 93 94 96 96 95 96 97 97 97 95 92 86 79 73 68 68 65 64 61 58 57 54 52 50 49 46 44 42 41 40 39 37 35
82 84 84 83 82 81 82 86 88 91 94 95 95 96 96 96 96 95 90 79 71 66 60 56 55 56 54 52 48 46 46 44 42 40 37 35 33 32 31 31 30 29 28 25
87 85 84 84 85 88 91 93 95 96 96 96 96 96 94 88 79 67 61 60 55 50 46 43 39 38 39 37 32 30 29 28 29 28 28 26 25 24 24 23 22 22 22 23
87 89 92 93 94 96 97 97 97 96 91 82 74 69 63 59 55 50 44 36 30 26 22 20 18 18 19 18 19 21 21 21 21 19 22 22 21 23 22 21 23 23 23 22
96 97 98 98 98 96 91 85 79 73 67 60 53 47 42 38 34 30 21 17 17 17 14 14 14 15 17 19 22 21 18 20 24 24 24 24 24 24 24 24 25 26 24 25
98 98 97 94 88 82 74 62 53 47 41 36 31 28 27 24 22 21 21 22 20 25 22 17 18 24 22 22 20 22 25 20 20 20 23 25 25 25 25 25 24 23 24 25
96 90 81 69 55 48 43 41 41 41 41 37 30 28 27 27 27 27 26 26 25 27 26 25 21 20 22 24 25 23 26 26 23 22 24 27 26 28 27 25 25 26 26 26
58 49 43 39 36 33 34 36 40 37 33 33 31 30 29 28 27 27 27 27 27 27 27 27 27 26 25 24 27 27 29 29 29 26 26 27 27 28 27 27 27 29 30 31

GFSNGP_prec_cthk_063.txt.gz
RH
66 66 78 91 87 78 82 80 94 85 90 87 85 79 71 60 65 59 60 59 62 63 63 59 60 62 66 66 65 71 70 63 59 62 58 55 48 42 43 48 48 50 52 51
72 66 71 81 80 77 86 84 80 87 94 92 90 87 77 67 65 65 63 62 61 60 59 59 62 59 61 64 64 63 71 71 67 59 59 56 60 61 59 54 50 56 55 57
80 69 68 68 64 78 81 83 86 95 82 77 85 81 74 66 65 66 66 63 59 53 50 50 50 50 49 54 59 63 65 65 71 73 71 61 59 62 64 66 67 65 63 64
78 76 90 58 57 61 67 80 79 70 71 68 74 76 72 68 61 62 58 54 49 44 37 32 30 31 34 39 44 54 59 61 58 65 72 73 66 64 63 62 66 67 69 70
73 88 79 68 64 52 63 70 65 63 61 65 75 70 69 67 66 59 52 46 40 37 34 30 26 25 25 30 37 39 41 47 54 56 60 69 74 71 66 67 65 67 71 76
70 80 89 79 70 61 57 73 65 58 65 71 68 68 76 68 62 59 53 52 50 41 33 26 25 26 25 24 25 26 33 38 43 45 50 55 56 61 66 68 67 71 73 73
60 78 77 70 73 73 73 86 75 68 67 69 67 73 73 65 60 55 51 50 35 30 28 27 27 26 26 25 25 26 28 29 35 41 46 48 49 51 58 64 68 72 77 78
76 73 73 60 70 75 81 79 80 76 73 70 70 65 58 55 52 49 42 32 27 27 28 29 28 27 26 26 25 25 25 28 31 33 38 41 45 50 56 63 70 73 76 80
75 65 55 57 63 72 73 69 72 74 71 67 62 57 54 53 48 41 36 35 37 36 35 34 32 29 28 28 26 26 26 28 29 33 34 39 41 48 55 66 74 80 87 89
79 81 70 80 92 84 74 72 74 69 70 70 70 65 73 63 51 44 42 43 42 40 38 36 34 33 33 32 32 32 32 32 35 35 36 41 46 49 57 64 72 85 91 93
85 97 92 90 92 96 90 86 73 74 69 68 65 72 71 67 56 51 49 47 46 44 41 39 38 38 38 39 39 40 39 38 40 43 44 51 60 61 61 65 73 81 89 94
98 98 97 99 99 93 93 92 81 70 71 66 66 67 64 57 52 52 51 51 50 49 48 47 45 45 45 45 47 47 47 48 50 53 54 59 73 86 80 75 75 81 88 91
97 98 98 97 96 94 92 86 75 70 68 64 62 60 58 56 55 54 53 53 54 55 54 54 54 53 52 55 56 58 60 60 62 65 65 67 81 90 95 87 85 86 90 95
95 98 95 92 91 89 86 80 77 74 68 65 63 61 60 59 58 58 58 58 58 60 61 62 63 64 64 64 65 68 69 75 77 79 82 83 90 93 97 97 97 95 93 94
86 87 87 85 84 84 79 75 73 71 67 66 64 63 62 61 61 61 62 62 64 67 69 70 71 73 72 73 75 77 82 89 92 94 94 97 97 96 96 96 96 97 99 95
90 89 87 81 80 81 78 74 72 71 70 67 64 61 60 61 63 64 66 69 70 73 77 77 77 78 82 83 85 86 90 93 94 95 96 97 97 97 97 96 97 97 97 96
86 86 85 82 82 80 75 72 69 65 64 64 66 68 70 76 81 81 79 80 79 79 81 81 87 88 89 89 89 90 94 95 96 96 96 96 97 97 97 97 97 96 96 95
86 84 82 79 78 74 70 69 70 69 71 72 73 76 80 85 87 89 90 88 86 85 83 85 90 91 92 92 91 91 93 91 89 85 83 79 76 75 75 72 70 66 63 60
83 82 79 75 73 72 71 72 73 74 77 79 80 83 84 87 90 92 94 94 91 88 85 84 82 76 71 69 66 64 63 62 60 60 61 59 57 53 50 47 45 42 40 38
84 83 83 82 79 77 75 75 76 78 80 82 84 86 87 91 92 92 90 88 82 77 71 67 64 61 59 59 56 53 52 49 46 44 42 41 40 39 37 35 33 33 32 31
79 81 86 83 81 79 79 80 81 83 85 86 87 88 88 87 87 79 68 64 62 59 56 55 53 50 49 45 41 39 37 37 36 33 31 29 28 27 26 26 26 25 24 23
90 90 89 87 84 83 84 85 87 87 89 92 94 89 78 69 63 55 50 46 42 38 35 32 30 30 29 25 23 21 21 20 20 20 21 21 22 23 23 23 23 23 23 23
91 89 89 90 89 90 92 93 91 86 78 70 64 60 54 48 41 34 30 29 25 22 19 17 17 18 19 19 20 20 20 20 22 23 23 22 22 22 22 22 21 21 22 21
93 92 93 94 96 91 83 77 71 63 53 45 44 40 38 36 31 26 21 20 21 22 19 19 19 21 21 21 20 20 21 21 22 23 24 24 24 24 22 22 22 22 21 21
97 97 97 94 87 80 66 54 45 41 36 34 31 29 27 26 25 27 24 24 25 24 24 23 22 21 20 19 21 21 20 21 21 21 21 22 24 23 24 24 23 23 23 24
97 94 82 63 48 40 39 42 42 41 37 35 33 31 30 29 28 28 27 27 27 27 26 24 23 22 21 20 21 23 22 22 22 22 23 23 24 24 25 25 25 25 25 26
57 49 43 41 38 37 39 41 39 39 38 35 33 31 29 28 28 28 28 29 29 29 28 28 27 27 28 27 27 26 26 26 26 27 26 26 27 28 27 27 27 27 28 29

GFSNGP_prec_cthk_069.txt.gz
RH
62 58 66 72 85 92 98 97 98 78 81 83 90 95 95 93 84 79 78 78 76 76 77 75 75 81 80 76 76 74 74 76 76 76 74 75 74 73 69 62 58 56 52 51
59 55 51 58 68 80 89 96 96 88 82 85 96 95 95 97 93 86 85 79 72 68 70 70 69 68 71 73 73 71 69 70 72 73 72 75 79 83 82 83 80 75 65 59
66 61 51 48 56 66 78 85 85 96 83 86 92 90 94 96 95 91 86 85 81 75 68 64 58 57 57 59 59 60 60 62 64 66 67 69 73 76 80 83 86 85 83 82
66 56 60 39 48 58 73 77 87 86 88 91 93 96 97 96 97 96 93 89 88 86 83 71 64 59 60 56 48 45 44 45 46 48 49 53 57 63 70 74 76 79 79 80
64 60 47 42 59 65 72 74 80 81 84 91 94 97 98 98 97 95 92 89 83 72 67 62 60 57 52 46 42 39 35 32 30 31 31 32 35 38 42 50 60 66 70 72
68 65 63 50 50 62 64 71 75 76 93 92 94 96 99 98 97 96 92 88 79 67 63 58 56 52 46 40 34 30 26 24 24 24 23 22 22 25 27 28 32 38 43 48
65 65 52 35 41 57 74 76 74 76 86 91 92 91 94 96 95 93 88 83 74 67 61 56 54 51 47 43 34 31 29 27 26 24 23 20 18 19 21 24 27 27 28 32
69 67 58 36 35 54 76 81 90 87 86 87 90 92 95 93 92 91 85 78 70 65 56 50 45 43 42 41 38 35 34 30 27 24 23 21 21 21 23 24 25 26 30 33
77 71 71 69 58 53 73 82 98 94 98 93 93 98 99 96 91 83 75 70 65 60 56 51 43 37 37 36 36 37 36 33 29 27 25 25 24 24 26 27 28 29 31 33
98 86 82 75 70 71 82 83 90 89 98 98 96 97 95 91 84 81 78 73 70 65 56 49 44 37 35 35 35 34 33 32 31 29 29 29 28 29 30 32 33 37 38 39
93 94 92 90 85 83 94 93 91 94 91 90 90 87 87 84 81 75 68 67 67 63 57 55 51 46 42 41 39 38 37 37 36 35 34 33 34 35 35 37 37 39 40 43
91 93 95 92 89 89 93 96 97 94 92 90 90 89 87 81 74 73 69 64 61 60 56 57 54 52 51 50 48 45 44 42 41 40 40 40 40 41 42 42 44 46 47 47
97 98 98 97 97 98 91 96 98 97 98 94 89 85 84 79 69 64 62 62 62 61 60 59 61 59 55 52 50 48 46 46 46 47 47 48 48 49 50 52 53 55 56 57
98 98 97 98 97 94 94 91 88 90 91 90 83 82 80 74 70 66 65 64 63 61 59 58 57 56 55 54 53 52 52 52 52 53 54 57 58 59 60 63 64 66 69 71
94 93 93 92 89 87 88 88 86 86 85 84 82 80 77 74 70 66 65 65 65 64 61 60 61 62 63 62 60 58 57 57 57 57 60 62 67 70 71 72 73 73 75 78
89 87 87 85 83 82 82 80 80 82 79 79 79 79 77 72 69 68 68 66 66 65 64 64 64 67 68 67 65 63 63 63 63 65 66 66 69 71 70 69 69 68 67 67
90 87 86 85 84 83 80 78 78 78 78 77 75 74 74 73 71 67 67 68 69 69 68 68 68 69 69 70 67 63 61 59 57 56 56 54 53 53 54 52 49 45 42 40
84 85 85 84 85 85 84 84 81 79 78 77 76 76 75 75 73 71 71 72 73 73 71 67 65 60 58 56 56 56 56 57 56 55 55 52 49 45 41 38 38 37 34 32
87 86 86 85 85 85 86 86 88 87 85 84 81 80 79 78 76 77 79 79 76 70 64 58 55 54 52 52 52 51 50 48 46 43 42 39 35 32 30 28 26 24 23 22
88 90 93 91 89 87 85 84 87 89 90 89 87 85 85 83 79 74 68 61 57 56 55 52 49 47 46 44 41 38 35 32 29 28 26 25 25 24 23 23 22 22 21 19
77 79 82 84 85 84 84 85 85 85 88 89 90 89 83 73 63 57 53 49 46 45 43 40 39 38 36 33 30 28 27 26 26 25 25 24 23 22 21 20 20 19 19 19
86 86 87 88 90 91 92 93 93 93 92 85 73 67 64 59 55 51 46 41 40 37 35 33 30 28 28 27 25 24 23 21 20 20 20 20 20 20 20 20 19 18 18 18
91 93 93 94 95 95 95 93 85 79 76 74 72 68 61 53 45 39 36 32 29 27 26 25 23 23 22 21 20 20 20 19 18 18 18 18 19 19 19 19 19 19 19 19
97 97 97 97 95 92 87 84 81 78 74 64 53 46 39 35 30 26 26 27 28 27 25 25 24 23 21 21 20 19 18 18 18 18 19 19 19 19 20 20 21 20 20 21
98 97 97 94 91 87 84 77 62 49 42 37 34 32 31 31 32 33 32 32 31 30 28 26 24 23 21 20 20 20 20 21 21 21 22 23 24 24 24 24 24 24 24 25
97 95 88 78 64 50 42 40 39 40 41 42 41 39 36 35 35 34 33 31 28 26 26 26 26 26 25 25 25 25 25 25 26 27 28 28 28 28 27 28 28 27 28 28
70 63 54 48 44 42 42 43 44 45 45 45 41 38 34 30 28 28 28 28 29 29 29 29 29 29 29 30 30 30 31 32 31 31 31 31 31 30 30 30 30 30 29 29

GFSNGP_prec_cthk_072.txt.gz
RH
73 72 71 67 67 72 85 91 98 95 93 90 91 95 93 90 80 77 81 80 81 83 82 83 86 88 88 89 89 86 83 79 79 80 78 78 77 77 76 75 69 64 60 56
67 62 58 52 44 51 67 76 85 87 85 78 94 95 97 94 90 83 74 73 74 74 78 84 87 88 87 90 92 88 85 80 77 78 80 79 77 77 78 81 85 83 84 85
66 61 49 40 46 46 59 73 78 84 77 85 89 88 90 94 93 92 90 86 78 75 72 75 72 72 71 71 72 71 73 72 70 67 69 72 73 74 74 74 76 78 80 83
69 56 56 30 39 48 57 70 77 81 86 96 95 98 95 94 93 95 96 95 95 93 86 79 71 68 64 63 62 60 58 56 55 53 52 54 57 58 57 56 60 67 72 74
67 62 46 30 49 62 62 57 70 82 88 94 92 91 99 98 97 96 96 95 92 86 87 84 78 72 67 63 57 54 52 48 46 42 39 38 36 36 35 36 38 43 45 49
77 70 63 35 47 45 49 58 76 80 86 91 92 92 95 97 99 97 98 95 88 80 76 71 65 63 62 58 54 49 43 40 38 34 33 30 27 26 27 26 31 32 33 32
74 73 56 34 41 45 54 59 70 71 76 93 92 98 99 98 98 98 96 93 87 80 78 73 67 61 57 55 52 51 49 46 41 37 34 31 30 30 31 32 32 31 30 27
72 74 63 44 39 39 53 64 78 86 86 90 97 93 96 95 97 97 96 85 80 72 68 67 64 60 55 48 45 45 43 39 37 35 33 32 32 31 29 28 28 28 29 29
77 71 68 64 71 65 59 61 82 92 94 92 97 98 97 98 98 98 93 84 76 74 70 65 59 56 53 49 43 38 37 35 34 32 31 30 30 29 28 28 28 29 29 30
99 94 90 81 78 76 75 65 78 93 93 97 98 98 98 98 97 96 90 87 83 75 68 66 63 58 54 50 43 38 35 35 35 34 34 33 32 31 31 31 31 32 32 33
97 96 95 93 92 85 80 79 82 95 94 95 97 97 97 96 95 94 88 81 74 70 65 62 62 61 58 58 56 52 50 49 44 41 40 40 39 39 38 39 39 38 38 39
96 96 95 94 95 92 87 87 98 97 97 97 98 96 97 97 96 91 82 76 72 69 63 58 56 54 53 53 53 52 48 49 48 47 48 48 47 46 46 45 45 45 46 47
95 97 96 93 95 92 94 94 94 95 97 98 97 96 96 95 93 90 84 81 73 68 63 60 57 56 56 56 56 56 55 53 52 52 51 52 52 52 51 52 53 55 56 58
98 98 98 97 97 95 95 94 92 92 92 94 95 94 92 89 87 87 85 80 74 70 66 64 62 60 60 58 59 59 59 59 59 59 58 58 58 58 57 58 59 60 62 64
97 95 93 94 91 92 92 90 88 86 89 91 90 88 87 85 81 79 77 75 72 70 68 67 65 64 64 62 64 64 65 65 64 64 64 63 62 60 58 57 56 55 55 55
91 88 87 86 86 86 85 82 79 80 80 81 84 85 84 83 81 79 78 74 74 74 73 71 69 68 68 68 66 64 62 60 58 56 55 53 52 50 48 47 43 38 35 33
86 84 83 82 84 84 82 80 78 78 78 78 78 79 78 79 80 81 82 81 79 78 76 74 71 68 65 61 61 58 55 53 52 51 50 49 47 44 41 39 37 35 34 32
81 82 82 81 81 80 80 81 79 79 80 79 80 80 80 80 81 83 83 82 80 78 75 70 64 60 56 51 49 48 47 47 47 46 45 42 40 37 34 31 28 26 25 25
82 83 83 83 83 82 83 83 84 83 83 84 85 86 86 86 87 87 84 79 72 64 58 54 52 50 49 47 46 45 42 38 36 34 34 34 32 30 28 26 25 23 22 22
84 83 86 86 88 90 90 90 88 86 86 87 89 90 90 86 82 76 69 62 60 57 55 51 48 45 42 39 35 34 34 33 33 34 34 32 30 28 26 24 24 23 21 19
84 85 85 83 82 86 88 88 88 87 87 87 87 82 76 73 69 66 63 60 58 55 49 44 39 36 35 34 33 32 31 31 29 28 28 26 25 23 20 19 18 18 18 17
85 86 87 87 88 89 90 91 91 90 86 79 74 73 72 69 66 62 57 51 45 39 36 34 30 28 28 29 29 27 26 25 23 22 20 19 18 18 18 18 18 18 17 17
88 90 91 93 93 93 92 87 83 81 80 76 74 71 68 62 54 45 39 35 31 29 28 27 25 26 26 26 25 25 24 23 21 19 18 18 17 17 18 18 18 18 18 19
93 95 96 96 93 88 85 85 83 80 77 72 64 54 42 35 32 30 28 28 30 32 33 33 31 29 27 26 24 22 21 20 20 19 19 19 20 20 20 20 21 21 22 22
96 96 96 93 91 88 82 76 67 53 41 36 35 33 32 32 34 35 36 36 36 36 34 33 31 29 26 24 24 23 22 21 21 22 23 23 23 23 24 25 25 25 25 25
88 83 79 74 67 56 45 41 41 44 46 46 46 45 43 40 38 38 36 33 31 29 28 27 27 27 27 27 27 26 25 25 26 26 26 27 28 28 28 28 28 28 29 29
72 65 56 50 47 46 45 46 46 46 45 43 40 37 33 29 28 28 28 29 30 30 30 30 31 30 31 31 30 29 27 27 28 28 29 29 30 30 31 31 30 31 31 31

GFSNGP_prec_cthk_075.txt.gz
RH
82 76 75 68 63 56 64 75 88 75 83 85 86 91 97 91 80 89 90 87 84 82 82 84 84 83 83 80 81 84 83 84 84 84 82 79 77 75 74 72 68 65 64 60
77 67 62 59 51 48 52 64 68 74 75 75 78 86 94 94 88 85 89 92 90 88 84 86 90 92 89 89 86 87 88 87 88 85 82 82 83 80 78 80 80 82 83 83
71 59 56 47 46 46 46 55 69 76 73 80 90 92 90 93 93 88 84 84 79 79 79 81 83 84 86 85 87 90 87 87 85 81 77 77 77 77 78 77 78 77 77 78
75 59 52 37 36 41 53 56 57 63 77 80 92 98 94 94 96 97 97 94 95 85 77 79 78 76 76 74 74 75 71 65 65 65 63 62 62 60 60 62 63 64 64 66
67 65 50 38 46 47 54 50 58 68 79 90 94 97 97 96 98 98 98 99 97 95 95 89 81 79 76 72 63 60 58 59 57 56 53 50 48 47 47 46 46 46 46 46
74 69 58 42 55 45 44 39 66 68 72 81 93 97 98 98 98 98 97 98 96 93 90 84 82 82 78 71 66 63 62 59 56 53 47 44 43 42 42 39 38 36 35 35
72 70 52 49 50 44 41 46 52 62 70 78 86 95 98 98 97 98 98 97 96 94 92 91 87 79 69 66 63 61 55 54 53 52 49 46 43 39 38 40 40 39 38 35
73 70 59 56 60 48 51 52 52 65 79 87 85 95 98 98 98 98 98 97 89 84 79 77 74 76 75 72 66 59 56 55 54 51 50 47 46 45 45 44 41 38 37 36
67 61 68 72 74 73 67 61 61 72 88 88 90 98 98 98 98 98 98 94 86 79 81 76 73 69 68 66 65 61 57 52 48 43 42 41 39 37 33 32 31 31 31 31
82 97 91 88 85 83 78 73 69 75 88 92 98 98 98 98 98 98 97 93 87 85 78 73 71 68 66 65 63 59 56 54 50 48 45 42 39 38 37 36 36 35 34 35
98 98 98 98 93 89 82 77 77 78 93 97 97 98 98 97 97 97 97 93 86 80 75 70 67 64 64 63 61 58 57 55 52 52 49 47 47 45 42 41 41 41 41 40
99 97 98 98 97 95 89 85 88 87 87 96 97 97 97 97 97 96 91 85 77 72 69 67 64 59 58 56 55 53 51 48 47 47 47 46 46 46 46 46 46 46 46 46
98 98 97 95 96 96 94 92 92 90 91 90 96 96 95 96 97 96 95 93 86 83 78 74 67 64 61 58 56 55 53 51 51 51 52 52 52 52 51 51 51 50 50 50
98 98 97 95 96 96 95 94 93 92 88 91 94 95 95 92 90 89 87 84 83 80 76 73 67 64 64 63 62 60 58 56 54 54 55 55 56 56 55 55 53 52 51 49
98 98 97 98 97 96 94 91 90 86 82 84 86 90 91 89 89 87 84 81 79 77 75 72 69 67 66 66 65 64 63 60 57 56 55 54 51 49 47 45 43 41 38 37
97 96 93 91 88 89 87 84 82 81 79 79 79 81 83 85 85 83 81 80 81 81 78 75 74 71 70 68 63 58 54 51 49 48 48 49 48 47 43 38 33 30 29 28
90 88 86 85 83 81 79 79 78 77 77 77 77 77 77 77 78 80 80 80 81 82 78 74 70 65 62 59 57 53 50 49 49 48 47 44 40 36 34 32 28 25 23 21
81 82 83 82 81 79 77 76 77 77 78 79 78 79 80 80 81 81 81 81 81 77 71 66 61 59 57 54 52 51 50 48 46 43 39 34 31 28 27 26 26 26 27 28
79 80 79 80 81 82 81 81 82 83 83 83 84 84 85 86 87 85 82 78 72 68 64 63 61 58 54 50 48 46 43 39 36 33 31 30 30 30 29 29 28 29 28 27
79 81 82 83 83 83 84 86 89 89 90 91 90 88 85 80 76 74 72 68 67 65 64 61 58 55 51 46 42 38 35 34 34 33 33 32 31 30 29 28 27 26 25 24
83 83 84 84 85 85 84 84 85 85 87 86 82 76 72 66 63 62 61 61 60 59 57 53 48 45 41 38 37 36 35 34 32 31 30 29 28 27 25 24 23 22 21 21
85 86 86 87 88 88 90 92 92 86 81 78 75 73 72 72 71 68 65 62 57 50 47 44 39 36 34 32 31 30 30 30 29 28 28 27 26 25 24 22 21 21 21 21
87 88 89 91 93 94 91 88 85 85 83 80 78 75 72 69 64 59 53 48 44 39 35 32 29 29 29 31 32 33 32 31 29 28 26 25 24 23 22 22 22 22 22 21
95 96 97 94 91 89 87 87 87 83 80 76 70 61 49 38 32 30 30 32 33 34 35 36 37 37 35 34 33 32 30 28 25 24 23 23 23 23 23 23 24 23 23 23
88 83 79 79 77 73 70 65 58 48 40 37 36 35 36 36 36 38 40 40 40 39 38 37 35 33 31 29 27 25 24 24 24 24 25 25 25 25 25 25 25 26 27 27
74 74 73 69 64 55 47 45 46 46 47 48 46 45 43 41 37 36 34 32 31 30 29 28 28 28 28 28 28 28 27 27 27 28 27 27 27 28 28 28 28 29 29 29
69 65 58 52 49 46 42 42 43 41 38 36 33 31 29 27 27 27 28 28 29 29 29 29 30 30 30 31 31 31 30 29 29 29 30 30 30 31 31 32 32 33 33 32

GFSNGP_prec_cthk_081.txt.gz
RH
63 61 72 70 93 73 77 73 64 61 55 57 70 74 83 81 90 95 95 91 82 77 83 82 82 84 82 78 76 75 77 79 79 76 71 62 57 58 58 58 59 60 63 63
76 70 65 57 74 64 60 53 50 52 58 77 80 79 79 82 90 95 98 94 90 84 87 89 89 87 87 85 85 84 84 86 86 85 86 80 75 71 68 66 67 71 74 71
74 83 65 70 69 65 57 59 57 66 71 69 80 80 76 80 91 97 97 99 95 95 90 89 90 92 92 90 88 88 93 94 92 90 90 89 89 87 86 85 80 78 80 80
91 79 77 53 60 59 57 62 65 66 68 63 73 83 86 87 96 98 97 98 97 97 97 94 95 96 98 96 95 95 98 98 95 93 93 93 96 97 97 95 94 92 92 90
97 67 64 58 67 66 63 88 75 60 58 62 64 74 84 91 97 97 97 98 98 97 96 98 95 94 94 94 96 94 95 95 93 92 91 92 90 92 96 98 98 94 90 91
91 78 71 80 66 55 48 66 70 57 54 55 61 70 75 91 97 96 97 98 97 98 96 98 98 90 87 88 88 89 90 91 87 85 84 86 89 88 80 76 74 69 64 64
94 72 69 74 61 46 50 82 72 62 62 53 60 70 78 86 95 97 98 97 97 97 97 98 97 98 98 94 91 87 83 83 84 86 82 81 82 77 70 65 63 60 58 51
76 76 75 63 58 59 75 68 58 57 54 54 55 67 82 84 94 97 97 97 98 97 98 97 96 96 96 97 97 96 91 88 88 88 87 83 80 78 75 72 66 61 57 56
92 95 85 71 66 72 71 67 67 67 65 61 59 72 80 84 93 97 98 97 97 97 95 91 88 90 89 89 89 88 86 86 89 85 81 82 82 81 80 77 72 69 67 66
87 85 76 72 74 72 68 70 74 74 74 71 72 84 85 86 95 97 97 98 95 92 89 84 81 80 79 78 76 74 73 73 74 74 72 69 65 67 68 68 66 65 63 61
78 75 75 82 85 82 79 80 79 84 81 78 86 97 97 92 97 97 97 97 97 93 88 84 81 79 78 76 74 73 73 73 72 68 65 62 59 59 58 58 58 58 57 55
76 76 83 95 95 97 94 91 86 88 87 85 87 97 97 98 97 97 97 97 97 96 93 86 84 81 81 79 78 77 77 76 74 71 68 66 64 63 60 57 55 53 51 49
81 83 98 97 97 98 98 98 94 96 95 89 88 97 97 97 98 97 97 97 97 97 94 84 78 76 77 76 73 72 71 70 69 68 68 66 62 60 55 54 53 51 49 46
96 98 98 98 98 97 97 97 96 95 96 95 89 88 95 96 96 95 94 94 97 97 96 94 91 87 84 83 79 76 72 69 68 65 63 61 59 56 53 49 46 38 34 31
97 98 98 98 96 95 95 95 93 92 91 89 86 85 85 85 86 88 90 91 91 90 90 89 88 86 84 78 75 73 70 67 63 60 56 53 51 48 47 45 43 42 41 39
97 97 96 94 92 90 88 86 84 84 85 84 82 80 80 80 79 79 79 81 84 85 84 83 81 80 76 75 75 70 64 59 60 59 56 54 51 48 46 44 43 40 33 31
97 95 93 89 86 82 79 77 77 79 78 77 76 77 78 79 78 78 78 76 75 74 73 71 70 68 65 63 67 66 63 60 58 57 55 53 51 50 48 46 43 39 28 26
85 85 83 79 77 76 76 75 75 75 75 75 76 76 76 76 77 77 78 75 72 70 67 64 61 59 57 55 58 61 59 58 56 55 53 52 50 47 45 43 42 41 40 35
78 75 75 75 74 74 74 75 76 76 76 77 77 78 79 79 79 78 75 76 78 76 65 61 57 55 53 52 57 59 59 59 58 56 53 49 47 46 46 45 44 43 42 41
71 71 72 74 77 80 82 82 83 81 81 82 82 81 79 77 75 72 70 68 66 65 63 61 65 61 59 56 58 62 59 54 50 48 46 46 45 43 40 36 38 39 39 39
75 76 80 81 81 80 80 79 80 80 81 80 78 74 70 67 65 65 74 75 70 64 64 65 61 61 57 53 56 54 52 50 49 47 45 44 42 42 41 40 38 37 37 38
79 79 78 78 80 81 83 84 84 80 76 74 74 74 75 75 74 72 70 74 74 63 64 64 53 49 46 46 51 48 45 43 41 40 39 38 39 39 40 40 40 40 39 37
78 80 82 84 83 77 71 68 67 66 65 64 62 60 62 59 56 52 54 46 45 38 41 37 30 29 28 33 37 38 39 41 42 43 42 41 40 39 37 36 34 32 31 30
80 73 67 63 61 63 65 60 60 57 55 50 42 37 39 41 40 40 37 35 36 37 38 37 36 36 36 44 43 42 41 39 37 35 33 30 31 30 29 28 28 27 27 27
63 62 60 63 63 65 62 56 49 44 43 44 41 40 38 38 37 38 34 33 29 30 33 30 27 26 30 30 30 29 29 28 28 27 28 28 28 28 28 28 28 28 29 29
63 64 66 63 61 54 50 49 48 47 43 41 39 36 31 29 29 29 29 29 30 30 30 30 29 29 29 29 29 29 29 29 29 29 29 29 29 29 30 30 30 31 32 33
65 64 60 54 51 48 45 43 41 39 39 39 39 38 37 35 34 31 32 35 36 35 33 34 33 31 31 31 31 31 31 31 32 31 32 32 32 33 33 34 34 35 36 37